CCA957 ZBAD-EDDF

Flight info

Callsign CCA957
Flight time 10h 10m
Altitude 38100
Route IDKEX B339 ASILA A575 INTIK Y618 AMUTA/K0928F381 R229 KESUM R372 ADONI B800 KUMOD N869 UNISO L870 RANVA/N0487F381 L870 RESMO DCT TODNA DCT DEREX DCT KOLJA DCT GORPI Z80 TILAV L87 KETAP DCT PENEK DCT POVEL DCT RIMET T157 KERAX
Aircraft B744/H-SDE3FGHIM1M2RWXY/LB1

Departure

Time 2026-05-04 17:21
Airport Beijing Daxing International Airport (ZBAD)

Arrival

Time 2026-05-05 03:32
Airport Frankfurt Main Airport (EDDF)
Time Latitude Longitude Altitude Speed Heading
2026-05-04 16:51 39.50598 116.41256 95 ft 0 kts 251°
2026-05-04 17:07 39.50602 116.41271 95 ft 4 kts 251°
2026-05-04 17:08 39.50611 116.41304 95 ft 4 kts 251°
2026-05-04 17:08 39.50628 116.41371 95 ft 4 kts 251°
2026-05-04 17:08 39.50636 116.41400 95 ft 4 kts 237°
2026-05-04 17:09 39.50645 116.41416 95 ft 4 kts 186°
2026-05-04 17:09 39.50660 116.41411 95 ft 4 kts 143°
2026-05-04 17:09 39.50679 116.41392 95 ft 1 kts 143°
2026-05-04 17:10 39.50680 116.41391 95 ft 0 kts 143°
2026-05-04 17:13 39.50588 116.41415 95 ft 12 kts 173°
2026-05-04 17:14 39.50503 116.41430 95 ft 11 kts 168°
2026-05-04 17:14 39.50430 116.41439 95 ft 8 kts 174°
2026-05-04 17:15 39.50409 116.41441 95 ft 4 kts 174°
2026-05-04 17:15 39.50383 116.41445 95 ft 6 kts 173°
2026-05-04 17:16 39.50236 116.41505 95 ft 8 kts 103°
2026-05-04 17:16 39.50260 116.41815 95 ft 12 kts 83°
2026-05-04 17:17 39.50269 116.41916 95 ft 11 kts 83°
2026-05-04 17:17 39.50298 116.42236 95 ft 9 kts 83°
2026-05-04 17:18 39.50276 116.42300 95 ft 9 kts 170°
2026-05-04 17:18 39.50161 116.42319 95 ft 8 kts 173°
2026-05-04 17:19 39.50139 116.42434 95 ft 7 kts 84°
2026-05-04 17:19 39.50150 116.42560 95 ft 7 kts 83°
2026-05-04 17:20 39.50133 116.42660 95 ft 6 kts 172°
2026-05-04 17:20 39.49966 116.42684 95 ft 25 kts 173°
2026-05-04 17:20 39.49676 116.42731 96 ft 71 kts 173°
2026-05-04 17:21 39.47841 116.43025 131 ft 184 kts 173°
2026-05-04 17:21 39.45345 116.43779 1651 ft 181 kts 155°
2026-05-04 17:22 39.44376 116.44664 2409 ft 167 kts 144°
2026-05-04 17:22 39.43488 116.45695 2536 ft 182 kts 133°
2026-05-04 17:23 39.43102 116.50919 3238 ft 205 kts 87°
2026-05-04 17:23 39.43220 116.52168 3371 ft 212 kts 87°
2026-05-04 17:23 39.43732 116.56781 3667 ft 236 kts 84°
2026-05-04 17:24 39.43889 116.58225 3737 ft 242 kts 84°
2026-05-04 17:24 39.45189 116.65034 3947 ft 285 kts 60°
2026-05-04 17:25 39.46381 116.67169 4071 ft 300 kts 52°
2026-05-04 17:25 39.49270 116.71325 4763 ft 318 kts 49°
2026-05-04 17:26 39.52252 116.75622 4889 ft 322 kts 47°
2026-05-04 17:26 39.56200 116.82657 5419 ft 329 kts 63°
2026-05-04 17:27 39.58144 116.87974 6825 ft 326 kts 65°
2026-05-04 17:27 39.60130 116.93291 7993 ft 329 kts 64°
2026-05-04 17:28 39.62556 116.98364 8981 ft 337 kts 46°
2026-05-04 17:29 39.68715 117.02318 10371 ft 341 kts
2026-05-04 17:29 39.76307 117.01739 10858 ft 390 kts 349°
2026-05-04 17:30 39.84481 117.00358 12959 ft 399 kts 351°
2026-05-04 17:31 39.90039 116.99508 14116 ft 410 kts 351°
2026-05-04 17:31 39.98696 116.98199 16008 ft 421 kts 352°
2026-05-04 17:32 40.04511 116.97319 17252 ft 426 kts 352°
2026-05-04 17:33 40.13454 116.95965 18877 ft 437 kts 352°
2026-05-04 17:33 40.16486 116.95507 19357 ft 442 kts 352°
2026-05-04 17:34 40.25757 116.94104 20797 ft 452 kts 352°
2026-05-04 17:34 40.28892 116.93627 21264 ft 456 kts 352°
2026-05-04 17:35 40.38445 116.92167 22580 ft 466 kts 351°
2026-05-04 17:35 40.44915 116.91057 23406 ft 470 kts 344°
2026-05-04 17:35 40.47942 116.89485 23785 ft 470 kts 330°
2026-05-04 17:36 40.50713 116.87181 24156 ft 472 kts 324°
2026-05-04 17:36 40.53379 116.84654 24589 ft 473 kts 321°
2026-05-04 17:36 40.55937 116.81939 25032 ft 473 kts 319°
2026-05-04 17:36 40.58426 116.79097 25402 ft 475 kts 317°
2026-05-04 17:37 40.60905 116.76195 25781 ft 477 kts 318°
2026-05-04 17:37 40.63396 116.73305 26133 ft 478 kts 318°
2026-05-04 17:37 40.65894 116.70422 26518 ft 479 kts 319°
2026-05-04 17:37 40.68412 116.67520 26737 ft 483 kts 319°
2026-05-04 17:38 40.70949 116.64598 27018 ft 484 kts 319°
2026-05-04 17:38 40.73476 116.61681 27424 ft 483 kts 319°
2026-05-04 17:38 40.76165 116.59072 27886 ft 478 kts 331°
2026-05-04 17:38 40.79236 116.57499 28471 ft 472 kts 344°
2026-05-04 17:39 40.85657 116.55936 29347 ft 468 kts 352°
2026-05-04 17:39 40.88890 116.55524 29671 ft 467 kts 354°
2026-05-04 17:39 40.92126 116.55249 30057 ft 464 kts 355°
2026-05-04 17:40 40.95351 116.55002 30362 ft 464 kts 355°
2026-05-04 17:40 40.98573 116.54721 30630 ft 463 kts 355°
2026-05-04 17:40 41.01779 116.54431 30893 ft 463 kts 355°
2026-05-04 17:40 41.04985 116.54133 31169 ft 461 kts 355°
2026-05-04 17:41 41.08175 116.53830 31471 ft 459 kts 355°
2026-05-04 17:41 41.11352 116.53527 31732 ft 457 kts 354°
2026-05-04 17:41 41.14529 116.53223 31868 ft 458 kts 355°
2026-05-04 17:41 41.17703 116.52921 31915 ft 458 kts 355°
2026-05-04 17:42 41.23967 116.51626 31919 ft 455 kts 340°
2026-05-04 17:42 41.29723 116.48057 31917 ft 457 kts 332°
2026-05-04 17:43 41.35178 116.43770 31909 ft 456 kts 329°
2026-05-04 17:43 41.40595 116.39390 31921 ft 456 kts 330°
2026-05-04 17:44 41.45993 116.35080 31919 ft 454 kts 330°
2026-05-04 17:44 41.51441 116.30738 31921 ft 453 kts 330°
2026-05-04 17:45 41.56872 116.26446 31915 ft 453 kts 330°
2026-05-04 17:45 41.62295 116.22148 31918 ft 453 kts 330°
2026-05-04 17:46 41.67706 116.17835 31914 ft 453 kts 330°
2026-05-04 17:46 41.73133 116.13529 31917 ft 454 kts 330°
2026-05-04 17:47 41.78539 116.09197 31920 ft 452 kts 330°
2026-05-04 17:47 41.83930 116.04855 31915 ft 452 kts 330°
2026-05-04 17:48 41.89296 116.00533 31915 ft 453 kts 330°
2026-05-04 17:48 41.94533 115.95866 31914 ft 454 kts 317°
2026-05-04 17:49 41.98401 115.89099 31922 ft 460 kts 306°
2026-05-04 17:49 42.01564 115.81553 31921 ft 465 kts 301°
2026-05-04 17:50 42.04549 115.73864 31910 ft 464 kts 301°
2026-05-04 17:50 42.07591 115.66231 31904 ft 462 kts 302°
2026-05-04 17:51 42.10688 115.58688 31904 ft 461 kts 302°
2026-05-04 17:51 42.13753 115.51079 31893 ft 462 kts 302°
2026-05-04 17:52 42.16772 115.43503 31907 ft 458 kts 301°
2026-05-04 17:52 42.19782 115.35921 31919 ft 459 kts 301°
2026-05-04 17:53 42.22799 115.28324 31912 ft 459 kts 301°
2026-05-04 17:53 42.25740 115.20688 31913 ft 458 kts 300°
2026-05-04 17:54 42.28596 115.12997 31913 ft 458 kts 300°
2026-05-04 17:54 42.31451 115.05317 31913 ft 457 kts 300°
2026-05-04 17:55 42.34283 114.97686 31913 ft 457 kts 300°
2026-05-04 17:55 42.37128 114.90005 31914 ft 457 kts 299°
2026-05-04 17:56 42.39984 114.82338 31914 ft 456 kts 300°
2026-05-04 17:56 42.42858 114.74692 31914 ft 455 kts 299°
2026-05-04 17:57 42.45699 114.67037 31915 ft 455 kts 299°
2026-05-04 17:57 42.48527 114.59381 31914 ft 454 kts 300°
2026-05-04 17:58 42.51377 114.51737 31916 ft 455 kts 299°
2026-05-04 17:58 42.54184 114.44060 31916 ft 454 kts 299°
2026-05-04 17:59 42.56979 114.36375 31916 ft 454 kts 299°
2026-05-04 18:00 42.61165 114.24838 31917 ft 454 kts 299°
2026-05-04 18:00 42.63980 114.17159 31917 ft 454 kts 300°
2026-05-04 18:01 42.66924 114.09581 31917 ft 453 kts 300°
2026-05-04 18:01 42.69847 114.01990 31918 ft 453 kts 300°
2026-05-04 18:02 42.74212 113.90572 31918 ft 454 kts 299°
2026-05-04 18:02 42.77116 113.82944 31918 ft 454 kts 299°
2026-05-04 18:03 42.80040 113.75339 31918 ft 453 kts 300°
2026-05-04 18:03 42.82964 113.67739 31918 ft 452 kts 299°
2026-05-04 18:04 42.85859 113.60133 31919 ft 452 kts 299°
2026-05-04 18:05 42.90215 113.48740 31919 ft 452 kts 299°
2026-05-04 18:05 42.93081 113.41111 31919 ft 452 kts 298°
2026-05-04 18:06 42.97361 113.29658 31921 ft 451 kts 298°
2026-05-04 18:06 43.00211 113.22025 31927 ft 451 kts 298°
2026-05-04 18:07 43.03081 113.14403 31927 ft 451 kts 299°
2026-05-04 18:07 43.05964 113.06848 31927 ft 452 kts 298°
2026-05-04 18:08 43.08390 113.00455 31927 ft 452 kts 298°
2026-05-04 18:08 43.11276 112.92821 31926 ft 452 kts 298°
2026-05-04 18:09 43.17031 112.77538 31926 ft 451 kts 298°
2026-05-04 18:10 43.19952 112.69923 31922 ft 451 kts 298°
2026-05-04 18:10 43.22819 112.62343 31926 ft 451 kts 298°
2026-05-04 18:11 43.25694 112.54689 31925 ft 451 kts 298°
2026-05-04 18:11 43.28590 112.47049 31925 ft 451 kts 298°
2026-05-04 18:12 43.31453 112.39383 31925 ft 451 kts 297°
2026-05-04 18:12 43.34296 112.31701 31925 ft 451 kts 297°
2026-05-04 18:13 43.37133 112.24009 31924 ft 451 kts 297°
2026-05-04 18:14 43.42055 112.13135 31934 ft 450 kts 315°
2026-05-04 18:14 43.46940 112.07700 31925 ft 454 kts 326°
2026-05-04 18:15 43.57831 111.98732 31922 ft 457 kts 326°
2026-05-04 18:16 43.63262 111.94179 31921 ft 457 kts 326°
2026-05-04 18:16 43.68694 111.89613 31920 ft 457 kts 325°
2026-05-04 18:17 43.76684 111.82428 31919 ft 457 kts 324°
2026-05-04 18:18 43.84649 111.75193 31925 ft 456 kts 324°
2026-05-04 18:18 43.89959 111.70365 31933 ft 457 kts 324°
2026-05-04 18:19 43.97928 111.63122 31923 ft 457 kts 324°
2026-05-04 18:19 44.03258 111.58328 31921 ft 456 kts 324°
2026-05-04 18:20 44.08574 111.53508 31920 ft 456 kts 324°
2026-05-04 18:20 44.13875 111.48679 31918 ft 455 kts 324°
2026-05-04 18:21 44.19168 111.43842 31918 ft 455 kts 323°
2026-05-04 18:21 44.24426 111.39025 31917 ft 455 kts 323°
2026-05-04 18:22 44.29711 111.34170 31915 ft 454 kts 323°
2026-05-04 18:22 44.34990 111.29311 31914 ft 455 kts 323°
2026-05-04 18:23 44.40272 111.24438 31913 ft 455 kts 323°
2026-05-04 18:23 44.45557 111.19553 31922 ft 456 kts 323°
2026-05-04 18:24 44.50853 111.14645 31921 ft 456 kts 322°
2026-05-04 18:24 44.56142 111.09732 31920 ft 456 kts 322°
2026-05-04 18:25 44.61424 111.04816 31919 ft 456 kts 322°
2026-05-04 18:25 44.66709 110.99886 31915 ft 456 kts 322°
2026-05-04 18:26 44.71979 110.94958 31913 ft 455 kts 322°
2026-05-04 18:26 44.77247 110.90023 31912 ft 455 kts 322°
2026-05-04 18:27 44.82518 110.85072 31911 ft 455 kts 322°
2026-05-04 18:27 44.87781 110.80119 31910 ft 454 kts 322°
2026-05-04 18:28 44.93035 110.75162 31910 ft 454 kts 322°
2026-05-04 18:28 44.98293 110.70192 31909 ft 455 kts 322°
2026-05-04 18:29 45.03551 110.65210 31908 ft 455 kts 322°
2026-05-04 18:29 45.08799 110.60226 31907 ft 454 kts 321°
2026-05-04 18:30 45.16669 110.52730 31906 ft 455 kts 321°
2026-05-04 18:31 45.21917 110.47719 31905 ft 455 kts 321°
2026-05-04 18:31 45.27159 110.42701 31904 ft 454 kts 321°
2026-05-04 18:32 45.32399 110.37674 31903 ft 454 kts 321°
2026-05-04 18:32 45.37633 110.32641 31903 ft 454 kts 321°
2026-05-04 18:33 45.42828 110.27634 31902 ft 454 kts 321°
2026-05-04 18:33 45.48057 110.22584 31904 ft 454 kts 321°
2026-05-04 18:34 45.53278 110.17529 31906 ft 454 kts 321°
2026-05-04 18:34 45.58508 110.12454 31906 ft 454 kts 321°
2026-05-04 18:35 45.63731 110.07373 31905 ft 454 kts 321°
2026-05-04 18:35 45.68951 110.02285 31904 ft 454 kts 321°
2026-05-04 18:36 45.74167 109.97189 31904 ft 454 kts 321°
2026-05-04 18:36 45.79381 109.92083 31902 ft 454 kts 321°
2026-05-04 18:37 45.84595 109.86965 31902 ft 454 kts 320°
2026-05-04 18:37 45.89804 109.81840 31901 ft 454 kts 320°
2026-05-04 18:38 45.95012 109.76704 31900 ft 454 kts 320°
2026-05-04 18:38 46.00213 109.71563 31900 ft 454 kts 320°
2026-05-04 18:39 46.05418 109.66407 31899 ft 454 kts 320°
2026-05-04 18:39 46.10615 109.61245 31898 ft 454 kts 320°
2026-05-04 18:40 46.15809 109.56075 31898 ft 453 kts 320°
2026-05-04 18:40 46.20992 109.50904 31897 ft 453 kts 320°
2026-05-04 18:41 46.26175 109.45722 31897 ft 453 kts 320°
2026-05-04 18:41 46.31356 109.40529 31896 ft 453 kts 320°
2026-05-04 18:42 46.36528 109.35331 31895 ft 453 kts 320°
2026-05-04 18:42 46.41701 109.30122 31895 ft 453 kts 320°
2026-05-04 18:43 46.46868 109.24906 31895 ft 452 kts 320°
2026-05-04 18:43 46.52028 109.19685 31894 ft 452 kts 320°
2026-05-04 18:44 46.57183 109.14456 31893 ft 452 kts 320°
2026-05-04 18:44 46.62338 109.09216 31893 ft 452 kts 320°
2026-05-04 18:45 46.67489 109.03967 31893 ft 452 kts 320°
2026-05-04 18:45 46.72631 108.98714 31892 ft 451 kts 320°
2026-05-04 18:46 46.77781 108.93481 31892 ft 451 kts 320°
2026-05-04 18:46 46.82918 108.88219 31891 ft 451 kts 319°
2026-05-04 18:47 46.88050 108.82923 31891 ft 451 kts 319°
2026-05-04 18:47 46.93171 108.77624 31891 ft 451 kts 319°
2026-05-04 18:48 46.98293 108.72317 31891 ft 451 kts 319°
2026-05-04 18:48 47.03371 108.67042 31890 ft 450 kts 319°
2026-05-04 18:49 47.08469 108.61715 31890 ft 450 kts 319°
2026-05-04 18:49 47.13568 108.56367 31889 ft 450 kts 319°
2026-05-04 18:50 47.18660 108.51011 31889 ft 450 kts 319°
2026-05-04 18:50 47.23746 108.45649 31889 ft 449 kts 319°
2026-05-04 18:51 47.28819 108.40290 31889 ft 449 kts 319°
2026-05-04 18:51 47.33915 108.34971 31889 ft 448 kts 319°
2026-05-04 18:52 47.38988 108.29628 31889 ft 448 kts 319°
2026-05-04 18:52 47.44046 108.24271 31889 ft 448 kts 318°
2026-05-04 18:53 47.49106 108.18907 31888 ft 448 kts 319°
2026-05-04 18:53 47.53319 108.14460 31888 ft 448 kts 318°
2026-05-04 18:54 47.58368 108.09065 31889 ft 446 kts 318°
2026-05-04 18:54 47.63399 108.03660 31883 ft 447 kts 317°
2026-05-04 18:55 47.68424 107.98249 31893 ft 447 kts 318°
2026-05-04 18:55 47.75956 107.90125 31887 ft 446 kts 317°
2026-05-04 18:56 47.80960 107.84697 31895 ft 445 kts 317°
2026-05-04 18:56 47.85974 107.79235 31887 ft 446 kts 317°
2026-05-04 18:57 47.90978 107.73761 31887 ft 447 kts 317°
2026-05-04 18:57 47.95979 107.68280 31902 ft 446 kts 317°
2026-05-04 18:58 48.00982 107.62777 31889 ft 446 kts 317°
2026-05-04 18:58 48.05992 107.57333 31887 ft 445 kts 317°
2026-05-04 18:59 48.10990 107.51880 31891 ft 444 kts 317°
2026-05-04 18:59 48.15977 107.46400 31890 ft 445 kts 317°
2026-05-04 19:00 48.20956 107.40904 31894 ft 444 kts 317°
2026-05-04 19:00 48.25927 107.35401 31894 ft 444 kts 317°
2026-05-04 19:01 48.30884 107.29899 31895 ft 443 kts 316°
2026-05-04 19:01 48.35835 107.24389 31895 ft 443 kts 316°
2026-05-04 19:02 48.40778 107.18875 31896 ft 441 kts 316°
2026-05-04 19:02 48.45700 107.13370 31897 ft 441 kts 316°
2026-05-04 19:03 48.50624 107.07850 31899 ft 441 kts 316°
2026-05-04 19:03 48.55515 107.02353 31900 ft 441 kts 316°
2026-05-04 19:04 48.60435 106.96809 31901 ft 441 kts 316°
2026-05-04 19:04 48.65354 106.91262 31902 ft 441 kts 316°
2026-05-04 19:05 48.70274 106.85743 31906 ft 440 kts 316°
2026-05-04 19:05 48.75173 106.80172 31904 ft 440 kts 316°
2026-05-04 19:06 48.80060 106.74589 31906 ft 439 kts 316°
2026-05-04 19:06 48.84939 106.69004 31913 ft 439 kts 316°
2026-05-04 19:07 48.89819 106.63415 31916 ft 439 kts 316°
2026-05-04 19:07 48.94691 106.57817 31920 ft 439 kts 316°
2026-05-04 19:08 48.99553 106.52210 31923 ft 438 kts 315°
2026-05-04 19:08 49.04401 106.46596 31927 ft 437 kts 315°
2026-05-04 19:09 49.09237 106.40979 31930 ft 437 kts 315°
2026-05-04 19:09 49.14064 106.35358 31934 ft 436 kts 315°
2026-05-04 19:10 49.18886 106.29744 31939 ft 436 kts 315°
2026-05-04 19:10 49.23731 106.24176 31942 ft 436 kts 315°
2026-05-04 19:11 49.28556 106.18575 31946 ft 435 kts 315°
2026-05-04 19:11 49.33363 106.12963 31950 ft 434 kts 315°
2026-05-04 19:12 49.40524 106.04563 31956 ft 433 kts 315°
2026-05-04 19:13 49.45299 105.98940 31961 ft 433 kts 315°
2026-05-04 19:13 49.50112 105.93260 31962 ft 432 kts 314°
2026-05-04 19:14 49.54878 105.87619 31969 ft 432 kts 314°
2026-05-04 19:14 49.59612 105.82003 31973 ft 432 kts 314°
2026-05-04 19:15 49.64364 105.76350 31977 ft 431 kts 314°
2026-05-04 19:15 49.69117 105.70682 31981 ft 431 kts 314°
2026-05-04 19:16 49.73863 105.65008 31985 ft 431 kts 314°
2026-05-04 19:16 49.78605 105.59324 31989 ft 431 kts 314°
2026-05-04 19:17 49.83346 105.53627 31993 ft 431 kts 314°
2026-05-04 19:17 49.88082 105.47921 31996 ft 431 kts 314°
2026-05-04 19:18 49.92809 105.42213 32000 ft 430 kts 314°
2026-05-04 19:18 49.97533 105.36491 32004 ft 431 kts 314°
2026-05-04 19:19 50.02264 105.30749 32007 ft 431 kts 314°
2026-05-04 19:19 50.06989 105.24998 32010 ft 431 kts 314°
2026-05-04 19:20 50.11708 105.19238 32016 ft 431 kts 314°
2026-05-04 19:20 50.16454 105.13499 32016 ft 432 kts 314°
2026-05-04 19:21 50.21176 105.07705 32019 ft 431 kts 314°
2026-05-04 19:21 50.25879 105.01899 32022 ft 430 kts 314°
2026-05-04 19:22 50.30570 104.96092 32026 ft 430 kts 314°
2026-05-04 19:22 50.35261 104.90281 32028 ft 430 kts 314°
2026-05-04 19:23 50.39518 104.83909 32031 ft 423 kts 305°
2026-05-04 19:23 50.43257 104.76858 32033 ft 419 kts 303°
2026-05-04 19:24 50.46952 104.69800 32036 ft 419 kts 304°
2026-05-04 19:24 50.50697 104.62785 32038 ft 419 kts 304°
2026-05-04 19:25 50.54414 104.55727 32040 ft 419 kts 304°
2026-05-04 19:25 50.58122 104.48651 32044 ft 419 kts 304°
2026-05-04 19:26 50.61823 104.41577 32044 ft 418 kts 304°
2026-05-04 19:26 50.65520 104.34509 32046 ft 418 kts 304°
2026-05-04 19:27 50.69216 104.27418 32054 ft 419 kts 304°
2026-05-04 19:27 50.72887 104.20277 32057 ft 419 kts 303°
2026-05-04 19:28 50.76546 104.13116 32059 ft 419 kts 303°
2026-05-04 19:28 50.80210 104.05944 32061 ft 420 kts 303°
2026-05-04 19:29 50.83890 103.98774 32063 ft 421 kts 304°
2026-05-04 19:29 50.87604 103.91610 32065 ft 421 kts 304°
2026-05-04 19:30 50.91283 103.84383 32066 ft 422 kts 303°
2026-05-04 19:30 50.94959 103.77124 32068 ft 422 kts 303°
2026-05-04 19:31 50.98636 103.69843 32069 ft 423 kts 303°
2026-05-04 19:31 51.02318 103.62552 32070 ft 424 kts 303°
2026-05-04 19:32 51.06023 103.55248 32071 ft 424 kts 304°
2026-05-04 19:32 51.09721 103.47919 32073 ft 426 kts 303°
2026-05-04 19:33 51.13420 103.40558 32075 ft 426 kts 303°
2026-05-04 19:33 51.17110 103.33177 32074 ft 426 kts 303°
2026-05-04 19:34 51.20793 103.25766 32075 ft 427 kts 303°
2026-05-04 19:34 51.24443 103.18386 32075 ft 427 kts 303°
2026-05-04 19:35 51.28116 103.10935 32076 ft 427 kts 303°
2026-05-04 19:35 51.31788 103.03463 32076 ft 428 kts 303°
2026-05-04 19:36 51.35460 102.95969 32077 ft 428 kts 303°
2026-05-04 19:36 51.39184 102.88518 32077 ft 429 kts 304°
2026-05-04 19:37 51.42918 102.80977 32077 ft 429 kts 303°
2026-05-04 19:37 51.46587 102.73501 32078 ft 430 kts 303°
2026-05-04 19:38 51.50281 102.65935 32078 ft 431 kts 303°
2026-05-04 19:38 51.53974 102.58341 32077 ft 432 kts 303°
2026-05-04 19:39 51.57672 102.50714 32077 ft 433 kts 303°
2026-05-04 19:39 51.61371 102.43060 32077 ft 434 kts 304°
2026-05-04 19:40 51.64473 102.36625 32076 ft 435 kts 304°
2026-05-04 19:40 51.68181 102.28910 32077 ft 436 kts 304°
2026-05-04 19:41 51.71894 102.21162 32076 ft 437 kts 304°
2026-05-04 19:41 51.75605 102.13394 32076 ft 437 kts 304°
2026-05-04 19:42 51.79348 102.05635 32076 ft 438 kts 304°
2026-05-04 19:42 51.83063 101.97836 32074 ft 438 kts 304°
2026-05-04 19:43 51.86761 101.89987 32075 ft 439 kts 303°
2026-05-04 19:43 51.90454 101.82118 32075 ft 439 kts 303°
2026-05-04 19:44 51.94140 101.74256 32074 ft 438 kts 303°
2026-05-04 19:44 51.97821 101.66395 32089 ft 437 kts 303°
2026-05-04 19:45 52.01497 101.58523 32095 ft 438 kts 303°
2026-05-04 19:45 52.05150 101.50664 32092 ft 440 kts 304°
2026-05-04 19:46 52.08852 101.42670 32093 ft 440 kts 304°
2026-05-04 19:46 52.12503 101.34761 32094 ft 440 kts 304°
2026-05-04 19:47 52.16181 101.26777 32093 ft 441 kts 304°
2026-05-04 19:47 52.19899 101.18820 32094 ft 441 kts 304°
2026-05-04 19:48 52.23620 101.10857 32095 ft 442 kts 305°
2026-05-04 19:48 52.27332 101.02860 32096 ft 442 kts 304°
2026-05-04 19:49 52.31007 100.94792 32096 ft 443 kts 304°
2026-05-04 19:49 52.34670 100.86705 32102 ft 442 kts 304°
2026-05-04 19:50 52.38326 100.78616 32103 ft 442 kts 304°
2026-05-04 19:50 52.41987 100.70509 32103 ft 443 kts 304°
2026-05-04 19:51 52.45647 100.62369 32104 ft 443 kts 304°
2026-05-04 19:51 52.49341 100.54279 32104 ft 443 kts 304°
2026-05-04 19:52 52.52989 100.46142 32105 ft 443 kts 304°
2026-05-04 19:52 52.56616 100.37972 32126 ft 442 kts 304°
2026-05-04 19:53 52.60237 100.29786 32131 ft 443 kts 304°
2026-05-04 19:53 52.63859 100.21595 32132 ft 442 kts 304°
2026-05-04 19:54 52.67478 100.13391 32133 ft 443 kts 304°
2026-05-04 19:54 52.71092 100.05158 32133 ft 443 kts 304°
2026-05-04 19:55 52.74692 99.96906 32133 ft 443 kts 304°
2026-05-04 19:55 52.78288 99.88631 32134 ft 444 kts 304°
2026-05-04 19:56 52.81881 99.80330 32142 ft 444 kts 304°
2026-05-04 19:56 52.85467 99.72021 32149 ft 444 kts 304°
2026-05-04 19:57 52.89123 99.63758 32149 ft 445 kts 304°
2026-05-04 19:57 52.92750 99.55464 32149 ft 444 kts 304°
2026-05-04 19:58 52.96358 99.47129 32152 ft 445 kts 304°
2026-05-04 19:58 52.99956 99.38772 32152 ft 445 kts 304°
2026-05-04 19:59 53.03520 99.30457 32153 ft 445 kts 304°
2026-05-04 19:59 53.07102 99.22067 32154 ft 445 kts 304°
2026-05-04 20:00 53.10684 99.13647 32155 ft 446 kts 304°
2026-05-04 20:00 53.14256 99.05220 32153 ft 445 kts 304°
2026-05-04 20:01 53.17820 98.96787 32157 ft 445 kts 304°
2026-05-04 20:01 53.21381 98.88333 32158 ft 445 kts 304°
2026-05-04 20:02 53.24939 98.79855 32160 ft 446 kts 304°
2026-05-04 20:02 53.28493 98.71360 32160 ft 446 kts 304°
2026-05-04 20:03 53.32046 98.62838 32162 ft 447 kts 304°
2026-05-04 20:03 53.35595 98.54298 32163 ft 447 kts 304°
2026-05-04 20:04 53.39135 98.45750 32164 ft 447 kts 304°
2026-05-04 20:04 53.42671 98.37181 32166 ft 447 kts 304°
2026-05-04 20:05 53.46206 98.28587 32167 ft 448 kts 304°
2026-05-04 20:05 53.49736 98.19977 32168 ft 448 kts 304°
2026-05-04 20:06 53.53267 98.11333 32169 ft 448 kts 304°
2026-05-04 20:06 53.56789 98.02683 32171 ft 448 kts 304°
2026-05-04 20:07 53.60303 97.94022 32172 ft 448 kts 304°
2026-05-04 20:07 53.63817 97.85330 32174 ft 449 kts 303°
2026-05-04 20:08 53.67327 97.76617 32176 ft 449 kts 303°
2026-05-04 20:08 53.70829 97.67894 32179 ft 449 kts 303°
2026-05-04 20:09 53.74301 97.59218 32179 ft 448 kts 303°
2026-05-04 20:09 53.77784 97.50485 32180 ft 448 kts 303°
2026-05-04 20:10 53.81259 97.41739 32182 ft 448 kts 303°
2026-05-04 20:10 53.84728 97.32979 32184 ft 448 kts 303°
2026-05-04 20:11 53.88190 97.24207 32186 ft 448 kts 303°
2026-05-04 20:11 53.91646 97.15418 32213 ft 448 kts 303°
2026-05-04 20:12 53.95095 97.06615 32220 ft 447 kts 303°
2026-05-04 20:12 53.98531 96.97814 32223 ft 447 kts 303°
2026-05-04 20:13 54.01993 96.88916 32226 ft 450 kts 303°
2026-05-04 20:13 54.05451 96.79997 32227 ft 452 kts 303°
2026-05-04 20:14 54.08908 96.71070 32229 ft 451 kts 304°
2026-05-04 20:14 54.12365 96.62240 32231 ft 451 kts 303°
2026-05-04 20:15 54.15787 96.53292 32234 ft 450 kts 303°
2026-05-04 20:15 54.19193 96.44318 32236 ft 450 kts 303°
2026-05-04 20:16 54.22593 96.35336 32238 ft 450 kts 303°
2026-05-04 20:16 54.25991 96.26348 32239 ft 449 kts 302°
2026-05-04 20:17 54.29079 96.17048 32242 ft 450 kts 299°
2026-05-04 20:17 54.32008 96.07585 32244 ft 450 kts 299°
2026-05-04 20:18 54.34961 95.98146 32246 ft 450 kts 299°
2026-05-04 20:18 54.37989 95.88738 32249 ft 450 kts 300°
2026-05-04 20:19 54.40994 95.79322 32251 ft 450 kts 299°
2026-05-04 20:19 54.43947 95.69841 32252 ft 450 kts 299°
2026-05-04 20:20 54.46889 95.60343 32254 ft 450 kts 299°
2026-05-04 20:20 54.49830 95.50831 32257 ft 450 kts 299°
2026-05-04 20:21 54.52767 95.41320 32258 ft 450 kts 299°
2026-05-04 20:21 54.57140 95.27042 32261 ft 449 kts 299°
2026-05-04 20:22 54.60039 95.17503 32270 ft 449 kts 299°
2026-05-04 20:22 54.62438 95.09575 32273 ft 449 kts 299°
2026-05-04 20:23 54.65318 95.00022 32275 ft 448 kts 300°
2026-05-04 20:23 54.68699 94.88887 32277 ft 447 kts 300°
2026-05-04 20:24 54.71138 94.81011 32278 ft 447 kts 300°
2026-05-04 20:24 54.74029 94.71496 32279 ft 447 kts 300°
2026-05-04 20:25 54.76897 94.61956 32280 ft 446 kts 300°
2026-05-04 20:25 54.79747 94.52417 32281 ft 446 kts 300°
2026-05-04 20:26 54.82583 94.42877 32284 ft 445 kts 300°
2026-05-04 20:26 54.85414 94.33317 32282 ft 445 kts 300°
2026-05-04 20:27 54.88239 94.23736 32283 ft 446 kts 300°
2026-05-04 20:27 54.91056 94.14144 32283 ft 446 kts 300°
2026-05-04 20:28 54.93864 94.04540 32284 ft 445 kts 300°
2026-05-04 20:28 54.96711 93.94984 32284 ft 444 kts 300°
2026-05-04 20:29 54.99483 93.85426 32286 ft 441 kts 300°
2026-05-04 20:29 55.02227 93.75849 32284 ft 442 kts 300°
2026-05-04 20:30 55.04967 93.66250 32283 ft 443 kts 300°
2026-05-04 20:30 55.07711 93.56629 32284 ft 443 kts 300°
2026-05-04 20:31 55.10466 93.47020 32283 ft 442 kts 300°
2026-05-04 20:31 55.13190 93.37399 32283 ft 442 kts 300°
2026-05-04 20:32 55.15897 93.27751 32283 ft 442 kts 300°
2026-05-04 20:32 55.18604 93.18085 32283 ft 442 kts 300°
2026-05-04 20:33 55.21308 93.08414 32281 ft 442 kts 300°
2026-05-04 20:33 55.23991 92.98748 32281 ft 441 kts 300°
2026-05-04 20:34 55.26748 92.89143 32281 ft 441 kts 300°
2026-05-04 20:34 55.29432 92.79485 32280 ft 440 kts 300°
2026-05-04 20:35 55.32080 92.69810 32282 ft 440 kts 300°
2026-05-04 20:35 55.34707 92.60169 32282 ft 440 kts 300°
2026-05-04 20:36 55.37348 92.50474 32281 ft 440 kts 300°
2026-05-04 20:36 55.40036 92.40750 32281 ft 438 kts 301°
2026-05-04 20:37 55.42746 92.31224 32281 ft 438 kts 301°
2026-05-04 20:37 55.45451 92.21616 32280 ft 438 kts 301°
2026-05-04 20:38 55.48161 92.11919 32280 ft 438 kts 301°
2026-05-04 20:38 55.50837 92.02290 32280 ft 437 kts 301°
2026-05-04 20:39 55.53503 91.92653 32280 ft 437 kts 301°
2026-05-04 20:39 55.56244 91.83089 32280 ft 436 kts 302°
2026-05-04 20:40 55.58938 91.73556 32280 ft 436 kts 301°
2026-05-04 20:40 55.61620 91.63930 32281 ft 437 kts 301°
2026-05-04 20:41 55.64288 91.54273 32281 ft 437 kts 301°
2026-05-04 20:41 55.66945 91.44598 32281 ft 437 kts 301°
2026-05-04 20:42 55.69592 91.34910 32285 ft 437 kts 301°
2026-05-04 20:42 55.72231 91.25211 32286 ft 437 kts 301°
2026-05-04 20:43 55.74860 91.15503 32287 ft 436 kts 300°
2026-05-04 20:43 55.77483 91.05776 32289 ft 437 kts 300°
2026-05-04 20:44 55.80099 90.96035 32288 ft 436 kts 300°
2026-05-04 20:44 55.82703 90.86298 32289 ft 436 kts 300°
2026-05-04 20:45 55.85298 90.76551 32290 ft 436 kts 300°
2026-05-04 20:45 55.87884 90.66794 32290 ft 436 kts 300°
2026-05-04 20:46 55.90462 90.57029 32291 ft 436 kts 300°
2026-05-04 20:46 55.93032 90.47250 32291 ft 435 kts 300°
2026-05-04 20:47 55.95593 90.37462 32291 ft 435 kts 300°
2026-05-04 20:47 55.98142 90.27677 32292 ft 434 kts 300°
2026-05-04 20:48 56.00680 90.17894 32292 ft 434 kts 300°
2026-05-04 20:48 56.03196 90.08153 32292 ft 434 kts 300°
2026-05-04 20:49 56.05721 89.98335 32292 ft 434 kts 300°
2026-05-04 20:49 56.08255 89.88438 32299 ft 434 kts 300°
2026-05-04 20:50 56.10746 89.78664 32299 ft 434 kts 300°
2026-05-04 20:50 56.13247 89.68807 32298 ft 434 kts 300°
2026-05-04 20:51 56.15741 89.58935 32296 ft 435 kts 299°
2026-05-04 20:51 56.18228 89.49050 32293 ft 435 kts 299°
2026-05-04 20:52 56.20735 89.39179 32276 ft 434 kts 300°
2026-05-04 20:52 56.23234 89.29299 32278 ft 434 kts 299°
2026-05-04 20:53 56.25683 89.19363 32274 ft 435 kts 299°
2026-05-04 20:53 56.28119 89.09406 32274 ft 435 kts 299°
2026-05-04 20:54 56.30554 88.99421 32272 ft 435 kts 298°
2026-05-04 20:54 56.33104 88.89556 32273 ft 432 kts 304°
2026-05-04 20:55 56.36299 88.80426 32270 ft 429 kts 308°
2026-05-04 20:55 56.39676 88.71550 32269 ft 429 kts 308°
2026-05-04 20:56 56.43023 88.62618 32268 ft 430 kts 308°
2026-05-04 20:56 56.46350 88.53647 32269 ft 430 kts 307°
2026-05-04 20:57 56.49670 88.44639 32269 ft 431 kts 307°
2026-05-04 20:57 56.53003 88.35628 32269 ft 430 kts 308°
2026-05-04 20:58 56.56379 88.26676 32268 ft 430 kts 308°
2026-05-04 20:58 56.59715 88.17666 32267 ft 430 kts 307°
2026-05-04 20:59 56.63035 88.08617 32267 ft 430 kts 307°
2026-05-04 20:59 56.66319 87.99614 32266 ft 430 kts 307°
2026-05-04 21:00 56.69620 87.90524 32265 ft 431 kts 307°
2026-05-04 21:00 56.72915 87.81416 32264 ft 431 kts 307°
2026-05-04 21:01 56.76206 87.72283 32264 ft 431 kts 307°
2026-05-04 21:01 56.79487 87.63140 32264 ft 431 kts 307°
2026-05-04 21:02 56.82774 87.53973 32263 ft 432 kts 307°
2026-05-04 21:02 56.86096 87.44831 32262 ft 432 kts 307°
2026-05-04 21:03 56.89357 87.35614 32261 ft 432 kts 306°
2026-05-04 21:03 56.92601 87.26368 32260 ft 432 kts 306°
2026-05-04 21:04 56.95839 87.17110 32256 ft 431 kts 306°
2026-05-04 21:04 56.99079 87.07845 32256 ft 432 kts 306°
2026-05-04 21:05 57.02321 86.98558 32243 ft 433 kts 306°
2026-05-04 21:05 57.05554 86.89235 32236 ft 432 kts 306°
2026-05-04 21:06 57.08771 86.79900 32239 ft 433 kts 306°
2026-05-04 21:06 57.11983 86.70533 32239 ft 433 kts 306°
2026-05-04 21:07 57.15187 86.61143 32239 ft 433 kts 306°
2026-05-04 21:07 57.18387 86.51731 32239 ft 433 kts 306°
2026-05-04 21:08 57.21662 86.42404 32238 ft 433 kts 306°
2026-05-04 21:08 57.24907 86.33035 32238 ft 433 kts 306°
2026-05-04 21:09 57.27583 86.25215 32238 ft 433 kts 305°
2026-05-04 21:09 57.30788 86.15778 32237 ft 433 kts 305°
2026-05-04 21:10 57.33978 86.06334 32237 ft 433 kts 305°
2026-05-04 21:10 57.37161 85.96865 32237 ft 433 kts 305°
2026-05-04 21:11 57.40347 85.87350 32237 ft 435 kts 304°
2026-05-04 21:11 57.43509 85.77865 32236 ft 435 kts 304°
2026-05-04 21:12 57.46706 85.68236 32236 ft 435 kts 304°
2026-05-04 21:12 57.49877 85.58646 32235 ft 436 kts 304°
2026-05-04 21:13 57.53041 85.49039 32235 ft 436 kts 304°
2026-05-04 21:13 57.56179 85.39471 32234 ft 436 kts 304°
2026-05-04 21:14 57.59334 85.29813 32232 ft 436 kts 304°
2026-05-04 21:14 57.62484 85.20131 32232 ft 437 kts 303°
2026-05-04 21:15 57.65633 85.10415 32228 ft 438 kts 303°
2026-05-04 21:15 57.68783 85.00654 32227 ft 439 kts 303°
2026-05-04 21:16 57.71931 84.90856 32225 ft 440 kts 303°
2026-05-04 21:16 57.75077 84.81027 32225 ft 441 kts 303°
2026-05-04 21:17 57.78222 84.71160 32223 ft 441 kts 302°
2026-05-04 21:17 57.81363 84.61263 32222 ft 442 kts 302°
2026-05-04 21:18 57.84498 84.51338 32224 ft 442 kts 302°
2026-05-04 21:18 57.87633 84.41382 32220 ft 443 kts 302°
2026-05-04 21:19 57.90761 84.31400 32218 ft 443 kts 301°
2026-05-04 21:19 57.93885 84.21387 32216 ft 444 kts 301°
2026-05-04 21:20 57.97001 84.11359 32215 ft 443 kts 301°
2026-05-04 21:20 58.00107 84.01321 32213 ft 443 kts 301°
2026-05-04 21:21 58.03205 83.91265 32211 ft 443 kts 301°
2026-05-04 21:21 58.06299 83.81181 32209 ft 443 kts 301°
2026-05-04 21:22 58.09381 83.71089 32207 ft 443 kts 301°
2026-05-04 21:22 58.12455 83.60983 32204 ft 444 kts 301°
2026-05-04 21:23 58.15528 83.50832 32202 ft 444 kts 301°
2026-05-04 21:23 58.18635 83.40719 32196 ft 444 kts 301°
2026-05-04 21:24 58.21708 83.30544 32193 ft 445 kts 300°
2026-05-04 21:24 58.24744 83.20305 32190 ft 445 kts 300°
2026-05-04 21:25 58.27773 83.10039 32187 ft 446 kts 300°
2026-05-04 21:25 58.30804 82.99747 32184 ft 446 kts 300°
2026-05-04 21:26 58.33242 82.88911 32183 ft 448 kts 288°
2026-05-04 21:26 58.34776 82.77404 32177 ft 449 kts 283°
2026-05-04 21:27 58.36080 82.65779 32175 ft 449 kts 283°
2026-05-04 21:27 58.37411 82.54145 32151 ft 449 kts 283°
2026-05-04 21:28 58.38752 82.42511 32123 ft 450 kts 283°
2026-05-04 21:28 58.40091 82.30858 32116 ft 450 kts 283°
2026-05-04 21:29 58.41530 82.19255 32113 ft 449 kts 284°
2026-05-04 21:29 58.42933 82.07719 32110 ft 449 kts 283°
2026-05-04 21:30 58.44302 81.96079 32106 ft 450 kts 283°
2026-05-04 21:30 58.45648 81.84420 32103 ft 450 kts 283°
2026-05-04 21:31 58.47642 81.66884 32100 ft 450 kts 283°
2026-05-04 21:32 58.48956 81.55203 32095 ft 450 kts 282°
2026-05-04 21:32 58.50260 81.43504 32091 ft 450 kts 282°
2026-05-04 21:33 58.51551 81.31803 32088 ft 449 kts 282°
2026-05-04 21:33 58.52829 81.20122 32084 ft 448 kts 282°
2026-05-04 21:34 58.54096 81.08437 32081 ft 448 kts 282°
2026-05-04 21:34 58.55352 80.96746 32077 ft 448 kts 282°
2026-05-04 21:35 58.56596 80.85053 32073 ft 448 kts 282°
2026-05-04 21:35 58.57830 80.73356 32069 ft 447 kts 281°
2026-05-04 21:36 58.59050 80.61676 32066 ft 447 kts 281°
2026-05-04 21:36 58.60260 80.49992 32062 ft 447 kts 281°
2026-05-04 21:37 58.61458 80.38303 32058 ft 446 kts 281°
2026-05-04 21:37 58.62663 80.26640 32054 ft 446 kts 282°
2026-05-04 21:38 58.63897 80.14982 32050 ft 446 kts 281°
2026-05-04 21:38 58.65043 80.03290 32043 ft 446 kts 280°
2026-05-04 21:39 58.66169 79.91596 32043 ft 444 kts 280°
2026-05-04 21:39 58.67285 79.79941 32039 ft 443 kts 280°
2026-05-04 21:40 58.68428 79.68296 32035 ft 444 kts 282°
2026-05-04 21:40 58.69995 79.56822 32031 ft 444 kts 285°
2026-05-04 21:41 58.71677 79.45479 32026 ft 444 kts 285°
2026-05-04 21:41 58.73329 79.34024 32022 ft 444 kts 284°
2026-05-04 21:42 58.74956 79.22555 32018 ft 444 kts 284°
2026-05-04 21:42 58.76567 79.11070 32014 ft 444 kts 284°
2026-05-04 21:43 58.78211 78.99595 32009 ft 444 kts 285°
2026-05-04 21:43 58.79911 78.88160 31991 ft 443 kts 284°
2026-05-04 21:44 58.81549 78.76700 31987 ft 443 kts 284°
2026-05-04 21:44 58.83155 78.65245 31984 ft 442 kts 284°
2026-05-04 21:45 58.84745 78.53773 31981 ft 442 kts 284°
2026-05-04 21:45 58.86318 78.42315 31979 ft 441 kts 284°
2026-05-04 21:46 58.87877 78.30871 31976 ft 440 kts 283°
2026-05-04 21:46 58.89426 78.19414 31969 ft 440 kts 283°
2026-05-04 21:47 58.90965 78.07949 31970 ft 440 kts 283°
2026-05-04 21:47 58.92494 77.96469 31970 ft 441 kts 283°
2026-05-04 21:48 58.94009 77.85008 31965 ft 439 kts 283°
2026-05-04 21:48 58.95512 77.73552 31963 ft 439 kts 283°
2026-05-04 21:49 58.97004 77.62089 31960 ft 439 kts 283°
2026-05-04 21:49 58.98490 77.50587 31958 ft 440 kts 282°
2026-05-04 21:50 58.99967 77.39068 31956 ft 440 kts 282°
2026-05-04 21:50 59.01498 77.27597 31952 ft 439 kts 282°
2026-05-04 21:51 59.02955 77.16082 31953 ft 439 kts 282°
2026-05-04 21:51 59.04374 77.04541 31950 ft 439 kts 282°
2026-05-04 21:52 59.05783 76.92986 31935 ft 440 kts 281°
2026-05-04 21:52 59.07191 76.81430 31928 ft 439 kts 281°
2026-05-04 21:53 59.08366 76.71839 31927 ft 439 kts 282°
2026-05-04 21:53 59.09786 76.60288 31926 ft 439 kts 281°
2026-05-04 21:54 59.11184 76.48710 31927 ft 440 kts 281°
2026-05-04 21:54 59.12633 76.37118 31901 ft 441 kts 281°
2026-05-04 21:55 59.13998 76.25492 31902 ft 440 kts 281°
2026-05-04 21:55 59.15333 76.13855 31898 ft 440 kts 280°
2026-05-04 21:56 59.16662 76.02199 31897 ft 441 kts 280°
2026-05-04 21:56 59.17995 75.90520 31896 ft 442 kts 280°
2026-05-04 21:57 59.19325 75.78810 31895 ft 442 kts 280°
2026-05-04 21:57 59.20641 75.67070 31895 ft 443 kts 279°
2026-05-04 21:58 59.21943 75.55314 31894 ft 443 kts 279°
2026-05-04 21:58 59.23237 75.43529 31893 ft 444 kts 279°
2026-05-04 21:59 59.24522 75.31742 31893 ft 444 kts 279°
2026-05-04 21:59 59.25824 75.19949 31892 ft 445 kts 280°
2026-05-04 22:00 59.27217 75.08248 31891 ft 445 kts 281°
2026-05-04 22:00 59.28565 74.96432 31890 ft 445 kts 279°
2026-05-04 22:01 59.29816 74.84556 31890 ft 446 kts 278°
2026-05-04 22:01 59.31051 74.72652 31889 ft 447 kts 278°
2026-05-04 22:02 59.32285 74.60700 31888 ft 449 kts 278°
2026-05-04 22:02 59.33769 74.48807 31890 ft 452 kts 285°
2026-05-04 22:03 59.36184 74.37349 31887 ft 458 kts 290°
2026-05-04 22:03 59.38866 74.25969 31888 ft 461 kts 290°
2026-05-04 22:04 59.41519 74.14498 31883 ft 462 kts 290°
2026-05-04 22:04 59.44145 74.02961 31882 ft 463 kts 290°
2026-05-04 22:05 59.46758 73.91361 31881 ft 465 kts 290°
2026-05-04 22:05 59.49456 73.79756 31880 ft 467 kts 291°
2026-05-04 22:06 59.52159 73.68128 31879 ft 467 kts 290°
2026-05-04 22:06 59.54812 73.56461 31878 ft 466 kts 290°
2026-05-04 22:07 59.57437 73.44773 31865 ft 466 kts 290°
2026-05-04 22:07 59.60042 73.33085 31858 ft 465 kts 290°
2026-05-04 22:08 59.62635 73.21367 31859 ft 466 kts 290°
2026-05-04 22:08 59.65221 73.09624 31857 ft 466 kts 290°
2026-05-04 22:09 59.67797 72.97853 31856 ft 467 kts 290°
2026-05-04 22:09 59.70367 72.86042 31854 ft 468 kts 290°
2026-05-04 22:10 59.72938 72.74158 31854 ft 470 kts 290°
2026-05-04 22:10 59.75511 72.62197 31853 ft 473 kts 290°
2026-05-04 22:11 59.78087 72.50151 31852 ft 475 kts 290°
2026-05-04 22:11 59.80666 72.38022 31851 ft 478 kts 290°
2026-05-04 22:12 59.83248 72.25807 31851 ft 481 kts 290°
2026-05-04 22:12 59.85830 72.13515 31848 ft 482 kts 290°
2026-05-04 22:13 59.88408 72.01179 31850 ft 483 kts 290°
2026-05-04 22:13 59.90977 71.88805 31849 ft 483 kts 290°
2026-05-04 22:14 59.93533 71.76417 31849 ft 483 kts 290°
2026-05-04 22:14 59.96072 71.64034 31850 ft 481 kts 290°
2026-05-04 22:15 59.98594 71.51669 31847 ft 480 kts 290°
2026-05-04 22:15 60.01094 71.39328 31846 ft 479 kts 290°
2026-05-04 22:16 60.03584 71.26961 31846 ft 480 kts 290°
2026-05-04 22:16 60.06064 71.14573 31845 ft 479 kts 290°
2026-05-04 22:17 60.08524 71.02203 31844 ft 478 kts 290°
2026-05-04 22:17 60.10973 70.89818 31843 ft 477 kts 290°
2026-05-04 22:18 60.13404 70.77442 31843 ft 477 kts 290°
2026-05-04 22:18 60.15861 70.65059 31842 ft 478 kts 291°
2026-05-04 22:19 60.18313 70.52665 31841 ft 477 kts 290°
2026-05-04 22:19 60.20689 70.40199 31840 ft 478 kts 289°
2026-05-04 22:20 60.23053 70.27697 31839 ft 478 kts 289°
2026-05-04 22:20 60.25418 70.15174 31838 ft 479 kts 290°
2026-05-04 22:21 60.27798 70.02651 31837 ft 479 kts 290°
2026-05-04 22:21 60.30146 69.90096 31836 ft 479 kts 289°
2026-05-04 22:22 60.32433 69.77580 31835 ft 478 kts 289°
2026-05-04 22:22 60.34727 69.65011 31835 ft 477 kts 289°
2026-05-04 22:23 60.37039 69.52371 31834 ft 476 kts 289°
2026-05-04 22:23 60.39325 69.39837 31834 ft 475 kts 289°
2026-05-04 22:24 60.41684 69.27487 31833 ft 473 kts 289°
2026-05-04 22:24 60.43941 69.14981 31833 ft 472 kts 289°
2026-05-04 22:25 60.46159 69.02488 31833 ft 470 kts 289°
2026-05-04 22:25 60.48366 68.90011 31833 ft 470 kts 289°
2026-05-04 22:26 60.50570 68.77537 31833 ft 470 kts 289°
2026-05-04 22:26 60.52755 68.65046 31832 ft 469 kts 288°
2026-05-04 22:27 60.54916 68.52542 31832 ft 469 kts 288°
2026-05-04 22:27 60.57065 68.40024 31833 ft 469 kts 288°
2026-05-04 22:28 60.59202 68.27504 31833 ft 469 kts 288°
2026-05-04 22:28 60.61345 68.14973 31833 ft 469 kts 289°
2026-05-04 22:29 60.63636 68.02554 31834 ft 469 kts 289°
2026-05-04 22:29 60.65756 67.90002 31834 ft 468 kts 288°
2026-05-04 22:30 60.67834 67.77443 31835 ft 467 kts 288°
2026-05-04 22:30 60.69903 67.64897 31836 ft 466 kts 288°
2026-05-04 22:31 60.71973 67.52343 31837 ft 466 kts 288°
2026-05-04 22:31 60.74015 67.39795 31838 ft 465 kts 288°
2026-05-04 22:32 60.76033 67.27235 31839 ft 464 kts 287°
2026-05-04 22:32 60.78034 67.14676 31841 ft 464 kts 287°
2026-05-04 22:33 60.80022 67.02122 31841 ft 463 kts 287°
2026-05-04 22:33 60.81983 66.89649 31846 ft 463 kts 287°
2026-05-04 22:34 60.84041 66.77152 31844 ft 462 kts 288°
2026-05-04 22:34 60.86058 66.64633 31845 ft 462 kts 287°
2026-05-04 22:35 60.88098 66.52127 31849 ft 462 kts 288°
2026-05-04 22:35 60.90056 66.39566 31850 ft 461 kts 287°
2026-05-04 22:36 60.91963 66.26985 31852 ft 461 kts 287°
2026-05-04 22:36 60.93860 66.14391 31854 ft 461 kts 287°
2026-05-04 22:37 60.95757 66.01793 31855 ft 460 kts 287°
2026-05-04 22:37 60.97639 65.89219 31856 ft 459 kts 286°
2026-05-04 22:38 60.99179 65.78791 31861 ft 458 kts 286°
2026-05-04 22:38 61.01329 65.64094 31860 ft 458 kts 286°
2026-05-04 22:39 61.03154 65.51510 31861 ft 457 kts 285°
2026-05-04 22:39 61.04661 65.41058 31863 ft 457 kts 285°
2026-05-04 22:40 61.06472 65.28484 31865 ft 457 kts 286°
2026-05-04 22:40 61.08375 65.15962 31866 ft 457 kts 286°
2026-05-04 22:41 61.10277 65.03455 31903 ft 456 kts 286°
2026-05-04 22:41 61.12072 64.90875 31925 ft 456 kts 285°
2026-05-04 22:42 61.13818 64.78275 31926 ft 455 kts 285°
2026-05-04 22:42 61.15552 64.65681 31925 ft 454 kts 285°
2026-05-04 22:43 61.17282 64.53112 31926 ft 454 kts 285°
2026-05-04 22:43 61.19002 64.40541 31925 ft 453 kts 284°
2026-05-04 22:44 61.20724 64.27984 31925 ft 452 kts 285°
2026-05-04 22:44 61.22506 64.15482 31925 ft 452 kts 284°
2026-05-04 22:45 61.24179 64.02906 31925 ft 452 kts 284°
2026-05-04 22:45 61.26647 63.84042 31925 ft 451 kts 284°
2026-05-04 22:46 61.28286 63.71471 31925 ft 450 kts 284°
2026-05-04 22:46 61.29689 63.58782 31925 ft 450 kts 279°
2026-05-04 22:47 61.30702 63.45932 31925 ft 450 kts 278°
2026-05-04 22:47 61.31721 63.33076 31924 ft 450 kts 279°
2026-05-04 22:48 61.32881 63.20285 31925 ft 450 kts 279°
2026-05-04 22:48 61.33915 63.07423 31925 ft 451 kts 278°
2026-05-04 22:49 61.34915 62.94528 31924 ft 451 kts 278°
2026-05-04 22:49 61.35907 62.81627 31925 ft 451 kts 278°
2026-05-04 22:50 61.36898 62.68741 31925 ft 450 kts 278°
2026-05-04 22:50 61.37884 62.55835 31925 ft 451 kts 278°
2026-05-04 22:51 61.38842 62.43020 31924 ft 450 kts 278°
2026-05-04 22:51 61.39788 62.30131 31924 ft 449 kts 278°
2026-05-04 22:52 61.40724 62.17232 31924 ft 450 kts 278°
2026-05-04 22:52 61.41649 62.04319 31924 ft 450 kts 278°
2026-05-04 22:53 61.42611 61.91425 31924 ft 449 kts 279°
2026-05-04 22:53 61.43675 61.78588 31923 ft 448 kts 279°
2026-05-04 22:54 61.44636 61.65711 31924 ft 448 kts 278°
2026-05-04 22:54 61.45506 61.52802 31924 ft 448 kts 277°
2026-05-04 22:55 61.46364 61.39891 31924 ft 448 kts 277°
2026-05-04 22:55 61.47219 61.26976 31924 ft 448 kts 277°
2026-05-04 22:56 61.48073 61.14086 31924 ft 447 kts 277°
2026-05-04 22:56 61.48913 61.01196 31924 ft 447 kts 277°
2026-05-04 22:57 61.49733 60.88302 31923 ft 446 kts 277°
2026-05-04 22:57 61.50540 60.75433 31927 ft 445 kts 277°
2026-05-04 22:58 61.51380 60.62609 31927 ft 445 kts 279°
2026-05-04 22:58 61.52319 60.49805 31926 ft 444 kts 277°
2026-05-04 22:59 61.53094 60.36985 31925 ft 443 kts 277°
2026-05-04 22:59 61.53840 60.24197 31926 ft 442 kts 277°
2026-05-04 23:00 61.54581 60.11407 31926 ft 441 kts 277°
2026-05-04 23:00 61.55321 59.98647 31926 ft 441 kts 277°
2026-05-04 23:01 61.56050 59.85884 31926 ft 440 kts 277°
2026-05-04 23:01 61.56756 59.73108 31926 ft 441 kts 277°
2026-05-04 23:02 61.57448 59.60313 31925 ft 441 kts 276°
2026-05-04 23:02 61.58131 59.47513 31926 ft 442 kts 276°
2026-05-04 23:03 61.58804 59.34684 31927 ft 442 kts 276°
2026-05-04 23:03 61.59514 59.21942 31927 ft 443 kts 277°
2026-05-04 23:04 61.60320 59.09102 31926 ft 443 kts 278°
2026-05-04 23:04 61.61052 58.96163 31926 ft 443 kts 276°
2026-05-04 23:05 61.61671 58.83368 31926 ft 443 kts 276°
2026-05-04 23:05 61.62281 58.70487 31926 ft 443 kts 276°
2026-05-04 23:06 61.62887 58.57597 31926 ft 443 kts 276°
2026-05-04 23:06 61.63495 58.44708 31926 ft 443 kts 276°
2026-05-04 23:07 61.64177 58.31848 31926 ft 442 kts 277°
2026-05-04 23:07 61.64837 58.19002 31926 ft 441 kts 276°
2026-05-04 23:08 61.65476 58.06155 31926 ft 442 kts 276°
2026-05-04 23:08 61.66097 57.93300 31926 ft 442 kts 276°
2026-05-04 23:09 61.66702 57.80442 31926 ft 441 kts 276°
2026-05-04 23:09 61.67370 57.67600 31926 ft 441 kts 277°
2026-05-04 23:10 61.68086 57.54749 31926 ft 442 kts 277°
2026-05-04 23:10 61.68735 57.41869 31927 ft 443 kts 276°
2026-05-04 23:11 61.69352 57.28954 31926 ft 443 kts 276°
2026-05-04 23:11 61.69949 57.16031 31926 ft 444 kts 276°
2026-05-04 23:12 61.70532 57.03080 31926 ft 444 kts 276°
2026-05-04 23:12 61.71101 56.90138 31925 ft 443 kts 276°
2026-05-04 23:13 61.71656 56.77209 31925 ft 443 kts 276°
2026-05-04 23:13 61.72199 56.64291 31925 ft 442 kts 276°
2026-05-04 23:14 61.72725 56.51475 31925 ft 441 kts 276°
2026-05-04 23:14 61.73242 56.38583 31925 ft 441 kts 276°
2026-05-04 23:15 61.73746 56.25712 31924 ft 440 kts 275°
2026-05-04 23:15 61.74237 56.12861 31924 ft 439 kts 275°
2026-05-04 23:16 61.74715 56.00020 31924 ft 439 kts 275°
2026-05-04 23:16 61.75182 55.87178 31924 ft 439 kts 275°
2026-05-04 23:17 61.75636 55.74322 31924 ft 439 kts 275°
2026-05-04 23:17 61.76079 55.61464 31924 ft 439 kts 275°
2026-05-04 23:18 61.76511 55.48580 31924 ft 440 kts 275°
2026-05-04 23:18 61.76980 55.35672 31924 ft 441 kts 276°
2026-05-04 23:19 61.77433 55.22747 31923 ft 441 kts 275°
2026-05-04 23:19 61.77803 55.09793 31923 ft 442 kts 274°
2026-05-04 23:20 61.78158 54.96811 31921 ft 443 kts 274°
2026-05-04 23:20 61.78507 54.83836 31900 ft 442 kts 274°
2026-05-04 23:21 61.78858 54.70875 31903 ft 441 kts 274°
2026-05-04 23:21 61.79226 54.57930 31904 ft 441 kts 274°
2026-05-04 23:22 61.79572 54.44976 31904 ft 440 kts 274°
2026-05-04 23:22 61.79849 54.34238 31904 ft 440 kts 274°
2026-05-04 23:23 61.80225 54.19150 31905 ft 439 kts 274°
2026-05-04 23:23 61.80486 54.08428 31905 ft 439 kts 274°
2026-05-04 23:24 61.80962 53.95580 31905 ft 438 kts 275°
2026-05-04 23:24 61.81317 53.82710 31906 ft 438 kts 274°
2026-05-04 23:25 61.81582 53.69820 31906 ft 439 kts 274°
2026-05-04 23:25 61.81842 53.56892 31907 ft 440 kts 274°
2026-05-04 23:26 61.82102 53.43953 31908 ft 440 kts 274°
2026-05-04 23:26 61.82354 53.31008 31908 ft 441 kts 274°
2026-05-04 23:27 61.82584 53.18029 31909 ft 442 kts 274°
2026-05-04 23:27 61.82800 53.05026 31909 ft 442 kts 274°
2026-05-04 23:28 61.83094 52.92052 31910 ft 441 kts 276°
2026-05-04 23:28 61.83382 52.79079 31916 ft 441 kts 275°
2026-05-04 23:29 61.83561 52.66076 31912 ft 440 kts 275°
2026-05-04 23:29 61.83723 52.53102 31909 ft 440 kts 275°
2026-05-04 23:30 61.83881 52.40138 31917 ft 438 kts 275°
2026-05-04 23:30 61.84043 52.27243 31910 ft 434 kts 276°
2026-05-04 23:31 61.84169 52.14365 31908 ft 438 kts 274°
2026-05-04 23:31 61.84191 52.01449 31916 ft 439 kts 274°
2026-05-04 23:32 61.84199 51.88612 31911 ft 438 kts 274°
2026-05-04 23:32 61.84202 51.75752 31906 ft 439 kts 274°
2026-05-04 23:33 61.84200 51.62813 31913 ft 440 kts 274°
2026-05-04 23:33 61.84176 51.49876 31915 ft 439 kts 274°
2026-05-04 23:34 61.84132 51.36979 31916 ft 439 kts 274°
2026-05-04 23:34 61.84067 51.24064 31913 ft 439 kts 274°
2026-05-04 23:35 61.83991 51.11156 31912 ft 436 kts 273°
2026-05-04 23:35 61.83905 50.98304 31919 ft 438 kts 273°
2026-05-04 23:36 61.83856 50.91843 32147 ft 440 kts 273°
2026-05-04 23:36 61.83852 50.85350 32390 ft 442 kts 274°
2026-05-04 23:36 61.83869 50.78830 32656 ft 443 kts 274°
2026-05-04 23:36 61.83860 50.72322 33089 ft 440 kts 274°
2026-05-04 23:37 61.83832 50.65848 33470 ft 439 kts 273°
2026-05-04 23:37 61.83794 50.59410 33736 ft 438 kts 273°
2026-05-04 23:37 61.83697 50.46530 33815 ft 437 kts 272°
2026-05-04 23:38 61.83657 50.33707 33816 ft 435 kts 273°
2026-05-04 23:38 61.83548 50.20916 33816 ft 434 kts 272°
2026-05-04 23:39 61.83381 50.08152 33814 ft 434 kts 272°
2026-05-04 23:39 61.83203 49.95411 33815 ft 433 kts 272°
2026-05-04 23:40 61.83021 49.82670 33814 ft 433 kts 272°
2026-05-04 23:40 61.82865 49.69927 33814 ft 433 kts 274°
2026-05-04 23:41 61.82880 49.57189 33813 ft 433 kts 273°
2026-05-04 23:41 61.82829 49.44429 33812 ft 434 kts 273°
2026-05-04 23:42 61.82740 49.31670 33810 ft 434 kts 272°
2026-05-04 23:42 61.82541 49.18896 33810 ft 435 kts 271°
2026-05-04 23:43 61.82329 49.06107 33809 ft 435 kts 271°
2026-05-04 23:43 61.82108 48.93337 33808 ft 434 kts 271°
2026-05-04 23:44 61.81876 48.80584 33806 ft 434 kts 271°
2026-05-04 23:44 61.81633 48.67852 33805 ft 433 kts 271°
2026-05-04 23:45 61.81486 48.55131 33803 ft 432 kts 272°
2026-05-04 23:45 61.81315 48.42532 33801 ft 432 kts 271°
2026-05-04 23:46 61.81089 48.29852 33800 ft 431 kts 271°
2026-05-04 23:46 61.80839 48.17179 33798 ft 431 kts 270°
2026-05-04 23:47 61.80591 48.04519 33796 ft 431 kts 271°
2026-05-04 23:47 61.80392 47.91866 33793 ft 431 kts 270°
2026-05-04 23:48 61.80085 47.79222 33791 ft 431 kts 270°
2026-05-04 23:48 61.79754 47.66569 33789 ft 431 kts 270°
2026-05-04 23:49 61.79415 47.53913 33787 ft 431 kts 270°
2026-05-04 23:49 61.79078 47.41270 33784 ft 430 kts 270°
2026-05-04 23:50 61.78779 47.28640 33780 ft 430 kts 270°
2026-05-04 23:50 61.78461 47.16019 33777 ft 430 kts 270°
2026-05-04 23:51 61.78103 47.03422 33774 ft 429 kts 269°
2026-05-04 23:51 61.77642 46.90843 33771 ft 429 kts 269°
2026-05-04 23:52 61.77168 46.78285 33771 ft 429 kts 269°
2026-05-04 23:52 61.76685 46.65755 33769 ft 427 kts 269°
2026-05-04 23:53 61.76193 46.53242 33766 ft 428 kts 268°
2026-05-04 23:53 61.75689 46.40735 33763 ft 427 kts 268°
2026-05-04 23:54 61.75275 46.28252 33761 ft 426 kts 269°
2026-05-04 23:54 61.74847 46.15785 33758 ft 426 kts 269°
2026-05-04 23:55 61.74365 46.03348 33755 ft 425 kts 268°
2026-05-04 23:56 61.73600 45.84720 33751 ft 425 kts 268°
2026-05-04 23:56 61.73092 45.72298 33748 ft 425 kts 269°
2026-05-04 23:57 61.72626 45.59876 33745 ft 425 kts 268°
2026-05-04 23:57 61.72057 45.47458 33743 ft 426 kts 267°
2026-05-04 23:58 61.71464 45.35017 33740 ft 427 kts 267°
2026-05-04 23:58 61.70863 45.22591 33736 ft 426 kts 267°
2026-05-04 23:59 61.70263 45.10168 33734 ft 426 kts 267°
2026-05-04 23:59 61.69677 44.97853 33731 ft 425 kts 267°
2026-05-05 00:00 61.69075 44.85485 33728 ft 424 kts 267°
2026-05-05 00:00 61.68454 44.73128 33725 ft 424 kts 266°
2026-05-05 00:01 61.67820 44.60811 33723 ft 423 kts 266°
2026-05-05 00:01 61.67175 44.48523 33720 ft 422 kts 266°
2026-05-05 00:02 61.66519 44.36266 33717 ft 421 kts 266°
2026-05-05 00:02 61.65974 44.24022 33715 ft 420 kts 267°
2026-05-05 00:03 61.65399 44.11809 33712 ft 419 kts 266°
2026-05-05 00:03 61.64775 43.99625 33710 ft 419 kts 266°
2026-05-05 00:04 61.64126 43.87453 33707 ft 419 kts 266°
2026-05-05 00:04 61.63461 43.75278 33703 ft 419 kts 265°
2026-05-05 00:05 61.62783 43.63104 33689 ft 420 kts 265°
2026-05-05 00:05 61.62093 43.50915 33687 ft 420 kts 265°
2026-05-05 00:06 61.61391 43.38724 33685 ft 421 kts 265°
2026-05-05 00:06 61.60677 43.26517 33683 ft 421 kts 265°
2026-05-05 00:07 61.59952 43.14311 33682 ft 421 kts 265°
2026-05-05 00:07 61.59331 43.03999 33680 ft 421 kts 265°
2026-05-05 00:08 61.58655 42.91782 33678 ft 421 kts 265°
2026-05-05 00:08 61.57919 42.79598 33677 ft 421 kts 264°
2026-05-05 00:09 61.57126 42.67422 33675 ft 421 kts 264°
2026-05-05 00:09 61.56321 42.55267 33675 ft 420 kts 264°
2026-05-05 00:10 61.55514 42.43142 33673 ft 419 kts 263°
2026-05-05 00:10 61.54715 42.31117 33672 ft 419 kts 263°
2026-05-05 00:11 61.53909 42.18934 33671 ft 419 kts 263°
2026-05-05 00:11 61.53092 42.06936 33670 ft 418 kts 263°
2026-05-05 00:12 61.52255 41.94885 33669 ft 418 kts 263°
2026-05-05 00:12 61.51404 41.82837 33668 ft 418 kts 263°
2026-05-05 00:13 61.50541 41.70812 33668 ft 418 kts 263°
2026-05-05 00:13 61.49684 41.58780 33667 ft 418 kts 263°
2026-05-05 00:14 61.48940 41.46724 33668 ft 418 kts 263°
2026-05-05 00:14 61.48130 41.34666 33667 ft 419 kts 263°
2026-05-05 00:15 61.47280 41.22604 33666 ft 419 kts 262°
2026-05-05 00:15 61.46409 41.10568 33666 ft 418 kts 262°
2026-05-05 00:16 61.45526 40.98569 33666 ft 418 kts 262°
2026-05-05 00:16 61.44630 40.86570 33667 ft 418 kts 262°
2026-05-05 00:17 61.43722 40.74582 33667 ft 417 kts 262°
2026-05-05 00:17 61.42807 40.62626 33621 ft 417 kts 262°
2026-05-05 00:18 61.41881 40.50692 33605 ft 416 kts 262°
2026-05-05 00:18 61.40947 40.38779 33605 ft 416 kts 261°
2026-05-05 00:19 61.40003 40.26888 33605 ft 415 kts 261°
2026-05-05 00:19 61.39050 40.15017 33606 ft 415 kts 261°
2026-05-05 00:20 61.38086 40.03153 33607 ft 415 kts 261°
2026-05-05 00:20 61.37113 39.91302 33607 ft 414 kts 261°
2026-05-05 00:21 61.36132 39.79485 33607 ft 414 kts 261°
2026-05-05 00:21 61.35140 39.67676 33607 ft 414 kts 261°
2026-05-05 00:22 61.34212 39.55852 33607 ft 414 kts 261°
2026-05-05 00:22 61.33211 39.44045 33607 ft 414 kts 260°
2026-05-05 00:23 61.32160 39.32233 33607 ft 415 kts 260°
2026-05-05 00:23 61.31101 39.20448 33580 ft 413 kts 259°
2026-05-05 00:24 61.30046 39.08776 33575 ft 409 kts 258°
2026-05-05 00:24 61.28996 38.97138 33575 ft 410 kts 258°
2026-05-05 00:25 61.28007 38.85533 33574 ft 410 kts 258°
2026-05-05 00:25 61.26936 38.73878 33573 ft 410 kts 257°
2026-05-05 00:26 61.25842 38.62246 33573 ft 410 kts 257°
2026-05-05 00:26 61.24742 38.50617 33572 ft 410 kts 257°
2026-05-05 00:27 61.23630 38.38983 33572 ft 410 kts 256°
2026-05-05 00:27 61.22258 38.27516 33571 ft 409 kts 253°
2026-05-05 00:28 61.20813 38.16107 33570 ft 409 kts 254°
2026-05-05 00:28 61.19381 38.04697 33569 ft 409 kts 254°
2026-05-05 00:29 61.17947 37.93281 33568 ft 410 kts 253°
2026-05-05 00:29 61.16503 37.81843 33567 ft 411 kts 253°
2026-05-05 00:30 61.15068 37.70389 33566 ft 411 kts 255°
2026-05-05 00:30 61.13725 37.58901 33565 ft 411 kts 254°
2026-05-05 00:31 61.12316 37.47424 33564 ft 412 kts 254°
2026-05-05 00:31 61.10873 37.35966 33563 ft 411 kts 253°
2026-05-05 00:32 61.09412 37.24525 33562 ft 412 kts 253°
2026-05-05 00:32 61.07947 37.13147 33556 ft 413 kts 253°
2026-05-05 00:33 61.06461 37.01699 33555 ft 413 kts 253°
2026-05-05 00:33 61.05040 36.90203 33555 ft 414 kts 253°
2026-05-05 00:34 61.03530 36.78757 33553 ft 413 kts 253°
2026-05-05 00:34 61.01985 36.67327 33553 ft 414 kts 253°
2026-05-05 00:35 61.00430 36.55894 33560 ft 414 kts 253°
2026-05-05 00:35 60.98871 36.44462 33560 ft 414 kts 253°
2026-05-05 00:36 60.97270 36.33061 33559 ft 414 kts 251°
2026-05-05 00:36 60.95370 36.21858 33558 ft 415 kts 249°
2026-05-05 00:37 60.93438 36.10672 33558 ft 415 kts 250°
2026-05-05 00:37 60.91633 35.99415 33558 ft 415 kts 250°
2026-05-05 00:38 60.89730 35.88187 33558 ft 417 kts 250°
2026-05-05 00:38 60.87786 35.76963 33558 ft 417 kts 250°
2026-05-05 00:39 60.85833 35.65758 33558 ft 417 kts 250°
2026-05-05 00:39 60.83881 35.54571 33558 ft 417 kts 250°
2026-05-05 00:40 60.81926 35.43389 33559 ft 417 kts 249°
2026-05-05 00:40 60.79943 35.32225 33560 ft 417 kts 249°
2026-05-05 00:41 60.77941 35.21070 33560 ft 418 kts 249°
2026-05-05 00:41 60.75923 35.09907 33561 ft 418 kts 249°
2026-05-05 00:42 60.73897 34.98775 33563 ft 418 kts 249°
2026-05-05 00:42 60.71855 34.87636 33564 ft 419 kts 249°
2026-05-05 00:43 60.69855 34.76463 33566 ft 419 kts 250°
2026-05-05 00:43 60.67905 34.65254 33568 ft 420 kts 250°
2026-05-05 00:44 60.65899 34.54084 33570 ft 420 kts 249°
2026-05-05 00:44 60.63861 34.42932 33572 ft 420 kts 249°
2026-05-05 00:45 60.61805 34.31782 33574 ft 421 kts 249°
2026-05-05 00:45 60.59735 34.20647 33577 ft 421 kts 249°
2026-05-05 00:46 60.57653 34.09511 33576 ft 421 kts 249°
2026-05-05 00:46 60.55563 33.98403 33577 ft 421 kts 249°
2026-05-05 00:47 60.53461 33.87290 33581 ft 422 kts 249°
2026-05-05 00:47 60.51345 33.76174 33584 ft 422 kts 249°
2026-05-05 00:48 60.49221 33.65071 33587 ft 423 kts 249°
2026-05-05 00:48 60.47083 33.53966 33591 ft 423 kts 249°
2026-05-05 00:49 60.44937 33.42876 33595 ft 423 kts 249°
2026-05-05 00:49 60.42783 33.31808 33599 ft 423 kts 249°
2026-05-05 00:50 60.40632 33.20816 33604 ft 423 kts 249°
2026-05-05 00:50 60.38454 33.09747 33608 ft 424 kts 249°
2026-05-05 00:51 60.36267 32.98691 33613 ft 424 kts 249°
2026-05-05 00:51 60.34423 32.89422 33617 ft 424 kts 249°
2026-05-05 00:52 60.32270 32.78325 33622 ft 425 kts 249°
2026-05-05 00:52 60.30063 32.67251 33626 ft 426 kts 249°
2026-05-05 00:53 60.27821 32.56279 33631 ft 426 kts 248°
2026-05-05 00:53 60.25551 32.45239 33637 ft 427 kts 248°
2026-05-05 00:54 60.23275 32.34197 33642 ft 427 kts 249°
2026-05-05 00:54 60.21002 32.23151 33647 ft 427 kts 249°
2026-05-05 00:55 60.18753 32.12082 33652 ft 428 kts 249°
2026-05-05 00:55 60.16441 32.01051 33657 ft 428 kts 248°
2026-05-05 00:56 60.14118 31.90046 33662 ft 428 kts 248°
2026-05-05 00:56 60.11779 31.78975 33667 ft 428 kts 248°
2026-05-05 00:57 60.09500 31.67953 33671 ft 428 kts 248°
2026-05-05 00:57 60.07179 31.56963 33675 ft 428 kts 248°
2026-05-05 00:58 60.04866 31.46070 33679 ft 428 kts 248°
2026-05-05 00:58 60.02844 31.34879 33683 ft 428 kts 253°
2026-05-05 00:59 60.01041 31.23551 33686 ft 427 kts 253°
2026-05-05 00:59 59.99293 31.12198 33689 ft 427 kts 253°
2026-05-05 01:00 59.97467 31.00919 33691 ft 427 kts 252°
2026-05-05 01:00 59.95583 30.89653 33698 ft 428 kts 252°
2026-05-05 01:01 59.93686 30.78386 33698 ft 429 kts 252°
2026-05-05 01:01 59.91783 30.67110 33698 ft 430 kts 253°
2026-05-05 01:02 59.89879 30.55735 33698 ft 430 kts 253°
2026-05-05 01:02 59.88000 30.44423 33698 ft 431 kts 253°
2026-05-05 01:03 59.86056 30.33130 33698 ft 431 kts 253°
2026-05-05 01:03 59.84100 30.21841 33699 ft 432 kts 253°
2026-05-05 01:04 59.82140 30.10531 33698 ft 433 kts 253°
2026-05-05 01:04 59.79279 29.93541 33698 ft 432 kts 253°
2026-05-05 01:05 59.77302 29.82271 33698 ft 432 kts 252°
2026-05-05 01:05 59.75312 29.71020 33697 ft 432 kts 252°
2026-05-05 01:06 59.73319 29.59778 33697 ft 432 kts 252°
2026-05-05 01:06 59.71315 29.48549 33697 ft 432 kts 252°
2026-05-05 01:07 59.69186 29.37432 33696 ft 432 kts 251°
2026-05-05 01:07 59.67018 29.26375 33696 ft 431 kts 250°
2026-05-05 01:08 59.64847 29.15339 33696 ft 430 kts 250°
2026-05-05 01:08 59.62676 29.04312 33696 ft 430 kts 250°
2026-05-05 01:09 59.60680 28.93275 33696 ft 429 kts 253°
2026-05-05 01:09 59.58744 28.82148 33696 ft 428 kts 252°
2026-05-05 01:10 59.56742 28.71080 33697 ft 428 kts 252°
2026-05-05 01:10 59.54735 28.60044 33697 ft 427 kts 251°
2026-05-05 01:11 59.52738 28.49021 33698 ft 427 kts 252°
2026-05-05 01:11 59.50800 28.37967 33699 ft 426 kts 252°
2026-05-05 01:12 59.48813 28.26995 33716 ft 426 kts 251°
2026-05-05 01:12 59.46811 28.16001 33719 ft 426 kts 251°
2026-05-05 01:13 59.44813 28.05018 33706 ft 427 kts 251°
2026-05-05 01:13 59.42733 27.94107 33707 ft 426 kts 250°
2026-05-05 01:14 59.40598 27.83247 33709 ft 426 kts 250°
2026-05-05 01:14 59.38447 27.72388 33713 ft 427 kts 250°
2026-05-05 01:15 59.36289 27.61523 33716 ft 428 kts 250°
2026-05-05 01:15 59.34129 27.50660 33719 ft 428 kts 250°
2026-05-05 01:16 59.31983 27.39747 33721 ft 429 kts 250°
2026-05-05 01:16 59.29826 27.28858 33725 ft 429 kts 250°
2026-05-05 01:17 59.27653 27.17983 33728 ft 430 kts 250°
2026-05-05 01:17 59.25464 27.07106 33731 ft 430 kts 249°
2026-05-05 01:18 59.23264 26.96252 33734 ft 430 kts 249°
2026-05-05 01:18 59.21057 26.85401 33737 ft 431 kts 250°
2026-05-05 01:19 59.18952 26.74459 33738 ft 430 kts 250°
2026-05-05 01:19 59.16809 26.63582 33740 ft 430 kts 250°
2026-05-05 01:20 59.14625 26.52718 33741 ft 430 kts 249°
2026-05-05 01:20 59.12424 26.41890 33741 ft 430 kts 249°
2026-05-05 01:21 59.10222 26.31143 33741 ft 430 kts 249°
2026-05-05 01:21 59.07995 26.20346 33741 ft 431 kts 249°
2026-05-05 01:22 59.05752 26.09531 33741 ft 431 kts 249°
2026-05-05 01:22 59.03491 25.98689 33828 ft 437 kts 249°
2026-05-05 01:23 59.02342 25.93206 34052 ft 439 kts 249°
2026-05-05 01:23 59.01187 25.87703 34278 ft 441 kts 249°
2026-05-05 01:23 59.00027 25.82197 34573 ft 441 kts 249°
2026-05-05 01:23 58.98866 25.76694 34859 ft 441 kts 249°
2026-05-05 01:24 58.97699 25.71183 35077 ft 442 kts 249°
2026-05-05 01:24 58.96531 25.65678 35363 ft 442 kts 249°
2026-05-05 01:24 58.95357 25.60163 35621 ft 442 kts 248°
2026-05-05 01:24 58.94184 25.54667 35877 ft 442 kts 248°
2026-05-05 01:25 58.93007 25.49165 36122 ft 442 kts 248°
2026-05-05 01:25 58.91827 25.43666 36357 ft 442 kts 248°
2026-05-05 01:25 58.90647 25.38180 36578 ft 442 kts 248°
2026-05-05 01:25 58.89465 25.32692 36868 ft 440 kts 248°
2026-05-05 01:26 58.88281 25.27220 37030 ft 441 kts 248°
2026-05-05 01:26 58.87097 25.21762 37212 ft 441 kts 248°
2026-05-05 01:26 58.85905 25.16279 37346 ft 443 kts 248°
2026-05-05 01:26 58.84712 25.10806 37538 ft 442 kts 248°
2026-05-05 01:27 58.83516 25.05332 37703 ft 442 kts 248°
2026-05-05 01:27 58.82315 24.99852 37744 ft 443 kts 248°
2026-05-05 01:27 58.79911 24.88926 37752 ft 443 kts 248°
2026-05-05 01:28 58.77497 24.78010 37751 ft 442 kts 248°
2026-05-05 01:28 58.75076 24.67117 37751 ft 442 kts 248°
2026-05-05 01:29 58.72645 24.56234 37757 ft 443 kts 248°
2026-05-05 01:29 58.70200 24.45352 37761 ft 443 kts 248°
2026-05-05 01:30 58.67763 24.34556 37765 ft 443 kts 247°
2026-05-05 01:30 58.65303 24.23710 37768 ft 443 kts 247°
2026-05-05 01:31 58.62828 24.12860 37770 ft 444 kts 247°
2026-05-05 01:31 58.60345 24.02027 37769 ft 443 kts 247°
2026-05-05 01:32 58.57849 23.91196 37767 ft 444 kts 247°
2026-05-05 01:32 58.55343 23.80373 37765 ft 445 kts 247°
2026-05-05 01:33 58.52826 23.69560 37763 ft 445 kts 247°
2026-05-05 01:33 58.50302 23.58767 37762 ft 445 kts 247°
2026-05-05 01:34 58.48182 23.49743 37761 ft 444 kts 247°
2026-05-05 01:34 58.45645 23.38997 37762 ft 443 kts 246°
2026-05-05 01:35 58.43104 23.28286 37764 ft 443 kts 246°
2026-05-05 01:35 58.40554 23.17590 37773 ft 443 kts 246°
2026-05-05 01:36 58.37994 23.06909 37776 ft 443 kts 246°
2026-05-05 01:36 58.35444 22.96316 37779 ft 443 kts 246°
2026-05-05 01:37 58.32848 22.85587 37782 ft 444 kts 246°
2026-05-05 01:37 58.30255 22.74922 37783 ft 444 kts 246°
2026-05-05 01:38 58.27673 22.64356 37785 ft 444 kts 246°
2026-05-05 01:38 58.25066 22.53734 37787 ft 444 kts 246°
2026-05-05 01:39 58.22446 22.43113 37787 ft 445 kts 246°
2026-05-05 01:39 58.19815 22.32498 37787 ft 444 kts 246°
2026-05-05 01:40 58.17178 22.21912 37787 ft 445 kts 246°
2026-05-05 01:40 58.14470 22.11089 37788 ft 445 kts 246°
2026-05-05 01:41 58.11870 22.00458 37788 ft 445 kts 246°
2026-05-05 01:41 58.09196 21.89897 37790 ft 445 kts 245°
2026-05-05 01:42 58.06499 21.79378 37791 ft 445 kts 245°
2026-05-05 01:42 58.03791 21.68854 37792 ft 445 kts 245°
2026-05-05 01:43 58.01082 21.58336 37795 ft 445 kts 245°
2026-05-05 01:43 57.98450 21.47789 37798 ft 445 kts 246°
2026-05-05 01:44 57.95906 21.37160 37799 ft 445 kts 246°
2026-05-05 01:44 57.93337 21.26566 37801 ft 445 kts 246°
2026-05-05 01:45 57.90769 21.16056 37802 ft 445 kts 246°
2026-05-05 01:45 57.88173 21.05486 37803 ft 445 kts 246°
2026-05-05 01:46 57.85581 20.94925 37798 ft 445 kts 247°
2026-05-05 01:46 57.83061 20.84330 37798 ft 444 kts 246°
2026-05-05 01:47 57.80500 20.73787 37798 ft 444 kts 247°
2026-05-05 01:47 57.77951 20.63244 37797 ft 444 kts 246°
2026-05-05 01:48 57.75323 20.52760 37796 ft 444 kts 246°
2026-05-05 01:48 57.72680 20.42308 37795 ft 444 kts 245°
2026-05-05 01:49 57.70038 20.31892 37794 ft 443 kts 245°
2026-05-05 01:49 57.67234 20.21636 37802 ft 444 kts 238°
2026-05-05 01:50 57.63478 20.12439 37806 ft 447 kts 232°
2026-05-05 01:50 57.59374 20.03723 37808 ft 447 kts 231°
2026-05-05 01:51 57.55256 19.95032 37808 ft 448 kts 231°
2026-05-05 01:51 57.51145 19.86311 37807 ft 448 kts 231°
2026-05-05 01:52 57.47035 19.77590 37799 ft 448 kts 231°
2026-05-05 01:52 57.42955 19.68837 37799 ft 448 kts 232°
2026-05-05 01:53 57.38907 19.60045 37799 ft 448 kts 232°
2026-05-05 01:53 57.34830 19.51319 37806 ft 448 kts 231°
2026-05-05 01:54 57.30731 19.42620 37809 ft 449 kts 231°
2026-05-05 01:54 57.26618 19.33937 37808 ft 449 kts 231°
2026-05-05 01:55 57.22500 19.25281 37807 ft 449 kts 231°
2026-05-05 01:55 57.18400 19.16701 37807 ft 449 kts 231°
2026-05-05 01:56 57.14268 19.08084 37810 ft 449 kts 231°
2026-05-05 01:56 57.10122 18.99469 37810 ft 450 kts 231°
2026-05-05 01:57 57.05967 18.90869 37811 ft 450 kts 231°
2026-05-05 01:57 57.01812 18.82299 37812 ft 450 kts 230°
2026-05-05 01:58 56.97649 18.73745 37814 ft 449 kts 230°
2026-05-05 01:58 56.93477 18.65203 37815 ft 450 kts 230°
2026-05-05 01:59 56.89295 18.56671 37817 ft 450 kts 230°
2026-05-05 01:59 56.85105 18.48154 37820 ft 450 kts 230°
2026-05-05 02:00 56.80913 18.39661 37824 ft 450 kts 230°
2026-05-05 02:00 56.76713 18.31187 37822 ft 450 kts 230°
2026-05-05 02:01 56.72509 18.22732 37825 ft 450 kts 230°
2026-05-05 02:01 56.68296 18.14291 37847 ft 451 kts 230°
2026-05-05 02:02 56.64099 18.05913 37851 ft 451 kts 230°
2026-05-05 02:02 56.59842 17.97442 37855 ft 451 kts 230°
2026-05-05 02:03 56.55640 17.89113 37859 ft 451 kts 230°
2026-05-05 02:03 56.51373 17.80685 37862 ft 451 kts 230°
2026-05-05 02:04 56.47159 17.72391 37865 ft 451 kts 230°
2026-05-05 02:04 56.42910 17.64059 37867 ft 451 kts 230°
2026-05-05 02:05 56.38656 17.55744 37870 ft 451 kts 229°
2026-05-05 02:05 56.34398 17.47449 37870 ft 451 kts 229°
2026-05-05 02:06 56.30101 17.39111 37873 ft 451 kts 229°
2026-05-05 02:06 56.25858 17.30908 37873 ft 451 kts 229°
2026-05-05 02:07 56.21588 17.22656 37875 ft 451 kts 230°
2026-05-05 02:07 56.17341 17.14386 37876 ft 450 kts 229°
2026-05-05 02:08 56.13051 17.06200 37877 ft 450 kts 229°
2026-05-05 02:08 56.08744 16.98032 37878 ft 451 kts 229°
2026-05-05 02:09 56.04437 16.89886 37880 ft 451 kts 229°
2026-05-05 02:09 56.00005 16.81975 37885 ft 451 kts 221°
2026-05-05 02:10 55.94838 16.75543 37884 ft 454 kts 215°
2026-05-05 02:10 55.89419 16.69728 37886 ft 455 kts 214°
2026-05-05 02:11 55.83990 16.63902 37888 ft 456 kts 214°
2026-05-05 02:11 55.78577 16.58049 37890 ft 456 kts 214°
2026-05-05 02:12 55.70459 16.49263 37895 ft 455 kts 215°
2026-05-05 02:13 55.65078 16.43337 37897 ft 455 kts 215°
2026-05-05 02:13 55.59680 16.37462 37900 ft 455 kts 214°
2026-05-05 02:14 55.54275 16.31623 37903 ft 455 kts 214°
2026-05-05 02:14 55.48862 16.25801 37911 ft 455 kts 214°
2026-05-05 02:15 55.44371 16.20990 37913 ft 455 kts 214°
2026-05-05 02:15 55.38964 16.15213 37915 ft 454 kts 214°
2026-05-05 02:16 55.33556 16.09455 37917 ft 455 kts 214°
2026-05-05 02:16 55.28151 16.03719 37918 ft 454 kts 214°
2026-05-05 02:17 55.22737 15.97992 37920 ft 454 kts 214°
2026-05-05 02:17 55.17341 15.92261 37921 ft 453 kts 214°
2026-05-05 02:18 55.11944 15.86556 37923 ft 453 kts 214°
2026-05-05 02:18 55.06537 15.80909 37924 ft 453 kts 214°
2026-05-05 02:19 55.01130 15.75285 37930 ft 452 kts 214°
2026-05-05 02:19 54.95725 15.69675 37930 ft 452 kts 214°
2026-05-05 02:20 54.90410 15.63889 37931 ft 450 kts 218°
2026-05-05 02:20 54.85423 15.57362 37932 ft 448 kts 220°
2026-05-05 02:21 54.80485 15.50758 37932 ft 448 kts 220°
2026-05-05 02:21 54.75528 15.44225 37932 ft 448 kts 220°
2026-05-05 02:22 54.70563 15.37725 37933 ft 448 kts 220°
2026-05-05 02:22 54.65613 15.31190 37933 ft 447 kts 220°
2026-05-05 02:23 54.60677 15.24632 37933 ft 448 kts 220°
2026-05-05 02:23 54.55739 15.18222 37934 ft 448 kts 219°
2026-05-05 02:24 54.50752 15.11784 37934 ft 448 kts 219°
2026-05-05 02:24 54.45768 15.05364 37934 ft 448 kts 219°
2026-05-05 02:25 54.40637 14.99307 37934 ft 449 kts 212°
2026-05-05 02:25 54.34940 14.94815 37935 ft 453 kts 206°
2026-05-05 02:26 54.29152 14.90534 37935 ft 453 kts 207°
2026-05-05 02:26 54.23380 14.86173 37934 ft 453 kts 207°
2026-05-05 02:27 54.17610 14.81862 37935 ft 453 kts 207°
2026-05-05 02:27 54.11833 14.77557 37935 ft 453 kts 207°
2026-05-05 02:28 54.06061 14.73267 37936 ft 452 kts 207°
2026-05-05 02:28 54.00291 14.68988 37935 ft 452 kts 207°
2026-05-05 02:29 53.94522 14.64696 37935 ft 452 kts 207°
2026-05-05 02:29 53.88771 14.60397 37935 ft 452 kts 207°
2026-05-05 02:30 53.83008 14.56134 37934 ft 452 kts 207°
2026-05-05 02:30 53.77250 14.51861 37935 ft 452 kts 207°
2026-05-05 02:31 53.71479 14.47618 37934 ft 452 kts 207°
2026-05-05 02:31 53.65695 14.43403 37935 ft 453 kts 207°
2026-05-05 02:32 53.59905 14.39199 37934 ft 453 kts 207°
2026-05-05 02:32 53.54116 14.35003 37934 ft 453 kts 207°
2026-05-05 02:33 53.48627 14.29943 37936 ft 450 kts 217°
2026-05-05 02:33 53.43622 14.23684 37934 ft 447 kts 220°
2026-05-05 02:34 53.38734 14.17246 37934 ft 447 kts 220°
2026-05-05 02:34 53.33764 14.10952 37934 ft 448 kts 219°
2026-05-05 02:35 53.28778 14.04697 37933 ft 448 kts 219°
2026-05-05 02:35 53.23785 13.98452 37933 ft 449 kts 219°
2026-05-05 02:36 53.18784 13.92209 37929 ft 449 kts 218°
2026-05-05 02:36 53.13560 13.86479 37928 ft 450 kts 214°
2026-05-05 02:37 53.08222 13.81124 37926 ft 451 kts 214°
2026-05-05 02:37 53.02857 13.75692 37924 ft 451 kts 214°
2026-05-05 02:38 52.97496 13.70258 37916 ft 451 kts 214°
2026-05-05 02:38 52.92397 13.64264 37918 ft 450 kts 225°
2026-05-05 02:39 52.88100 13.56763 37914 ft 448 kts 230°
2026-05-05 02:39 52.84073 13.48894 37912 ft 448 kts 231°
2026-05-05 02:40 52.80018 13.41070 37911 ft 448 kts 230°
2026-05-05 02:40 52.75937 13.33282 37910 ft 448 kts 230°
2026-05-05 02:41 52.71845 13.25511 37908 ft 448 kts 230°
2026-05-05 02:41 52.67786 13.17716 37909 ft 448 kts 230°
2026-05-05 02:42 52.63718 13.09933 37910 ft 448 kts 230°
2026-05-05 02:42 52.59646 13.02175 37911 ft 448 kts 230°
2026-05-05 02:43 52.55566 12.94424 37911 ft 448 kts 230°
2026-05-05 02:43 52.51450 12.86728 37912 ft 448 kts 229°
2026-05-05 02:44 52.47328 12.79053 37913 ft 448 kts 229°
2026-05-05 02:44 52.43200 12.71385 37913 ft 448 kts 229°
2026-05-05 02:45 52.39843 12.62964 37921 ft 448 kts 248°
2026-05-05 02:45 52.37933 12.53246 37919 ft 449 kts 254°
2026-05-05 02:46 52.36502 12.43285 37914 ft 450 kts 256°
2026-05-05 02:46 52.35108 12.33306 37914 ft 450 kts 255°
2026-05-05 02:47 52.33681 12.23346 37916 ft 450 kts 255°
2026-05-05 02:47 52.32236 12.13390 37927 ft 450 kts 255°
2026-05-05 02:48 52.30842 12.03423 37929 ft 450 kts 256°
2026-05-05 02:48 52.29445 11.93455 37930 ft 450 kts 255°
2026-05-05 02:49 52.28007 11.83490 37931 ft 450 kts 255°
2026-05-05 02:49 52.26550 11.73545 37934 ft 450 kts 255°
2026-05-05 02:50 52.25082 11.63601 37935 ft 450 kts 255°
2026-05-05 02:50 52.23616 11.53739 37935 ft 450 kts 255°
2026-05-05 02:51 52.22122 11.43755 37935 ft 450 kts 255°
2026-05-05 02:51 52.20631 11.33838 37928 ft 449 kts 255°
2026-05-05 02:51 52.19927 11.28929 37728 ft 441 kts 255°
2026-05-05 02:52 52.19214 11.24098 37225 ft 436 kts 255°
2026-05-05 02:52 52.18489 11.19322 36752 ft 432 kts 254°
2026-05-05 02:52 52.17763 11.14615 36381 ft 425 kts 254°
2026-05-05 02:52 52.17044 11.09983 36006 ft 420 kts 254°
2026-05-05 02:53 52.16328 11.05383 35630 ft 416 kts 253°
2026-05-05 02:53 52.15617 11.00829 35255 ft 414 kts 253°
2026-05-05 02:53 52.14905 10.96273 34879 ft 415 kts 253°
2026-05-05 02:53 52.14194 10.91725 34505 ft 415 kts 253°
2026-05-05 02:54 52.13158 10.87371 34118 ft 413 kts 238°
2026-05-05 02:54 52.11342 10.83793 33747 ft 412 kts 221°
2026-05-05 02:54 52.09085 10.80927 33376 ft 412 kts 217°
2026-05-05 02:54 52.06685 10.78354 33000 ft 414 kts 213°
2026-05-05 02:55 52.04171 10.76052 32625 ft 416 kts 210°
2026-05-05 02:55 52.01582 10.73936 32250 ft 418 kts 208°
2026-05-05 02:55 51.98949 10.71921 31875 ft 419 kts 207°
2026-05-05 02:55 51.96310 10.69928 31501 ft 420 kts 207°
2026-05-05 02:56 51.93657 10.67911 31125 ft 421 kts 207°
2026-05-05 02:56 51.91008 10.65887 30751 ft 422 kts 207°
2026-05-05 02:56 51.88347 10.63848 30376 ft 424 kts 207°
2026-05-05 02:56 51.85677 10.61800 30076 ft 425 kts 207°
2026-05-05 02:57 51.83009 10.59753 30002 ft 425 kts 207°
2026-05-05 02:57 51.77682 10.55614 29935 ft 425 kts 207°
2026-05-05 02:58 51.72349 10.51495 29930 ft 425 kts 207°
2026-05-05 02:58 51.67010 10.47400 29930 ft 425 kts 207°
2026-05-05 02:59 51.61668 10.43306 29931 ft 425 kts 207°
2026-05-05 02:59 51.56370 10.39237 29931 ft 425 kts 207°
2026-05-05 03:00 51.51894 10.35840 29931 ft 425 kts 207°
2026-05-05 03:00 51.46543 10.31797 29932 ft 426 kts 207°
2026-05-05 03:01 51.41185 10.27759 29934 ft 426 kts 207°
2026-05-05 03:01 51.35814 10.23754 29929 ft 426 kts 203°
2026-05-05 03:02 51.29992 10.21924 29931 ft 431 kts 188°
2026-05-05 03:02 51.23971 10.21657 29935 ft 434 kts 183°
2026-05-05 03:03 51.17934 10.21656 29935 ft 434 kts 184°
2026-05-05 03:03 51.11906 10.21553 29704 ft 428 kts 184°
2026-05-05 03:03 51.08944 10.21496 29198 ft 425 kts 184°
2026-05-05 03:04 51.05994 10.21439 28699 ft 424 kts 184°
2026-05-05 03:04 51.03040 10.21383 28198 ft 423 kts 184°
2026-05-05 03:04 51.00110 10.21327 27697 ft 420 kts 184°
2026-05-05 03:04 50.97202 10.21271 27197 ft 417 kts 184°
2026-05-05 03:05 50.94304 10.21217 26696 ft 415 kts 184°
2026-05-05 03:05 50.91424 10.21163 26194 ft 412 kts 184°
2026-05-05 03:05 50.88562 10.21109 25693 ft 410 kts 184°
2026-05-05 03:05 50.85721 10.21037 25192 ft 407 kts 185°
2026-05-05 03:06 50.82977 10.20169 24683 ft 401 kts 202°
2026-05-05 03:06 50.80608 10.17957 24201 ft 396 kts 221°
2026-05-05 03:06 50.78709 10.14820 23836 ft 392 kts 229°
2026-05-05 03:06 50.77080 10.11385 23460 ft 390 kts 234°
2026-05-05 03:07 50.75631 10.07788 23084 ft 387 kts 238°
2026-05-05 03:07 50.74337 10.04066 22708 ft 385 kts 240°
2026-05-05 03:07 50.73143 10.00304 22333 ft 383 kts 242°
2026-05-05 03:07 50.71987 9.96580 21962 ft 382 kts 242°
2026-05-05 03:08 50.70803 9.92837 21586 ft 380 kts 241°
2026-05-05 03:08 50.69600 9.89079 21206 ft 378 kts 241°
2026-05-05 03:08 50.68411 9.85385 20830 ft 376 kts 241°
2026-05-05 03:08 50.67231 9.81727 20386 ft 375 kts 241°
2026-05-05 03:09 50.66048 9.78065 19884 ft 372 kts 241°
2026-05-05 03:09 50.64878 9.74448 19383 ft 369 kts 241°
2026-05-05 03:09 50.63655 9.70915 18871 ft 365 kts 233°
2026-05-05 03:09 50.61868 9.68127 18371 ft 361 kts 215°
2026-05-05 03:10 50.59765 9.66013 17877 ft 359 kts 210°
2026-05-05 03:10 50.57553 9.64226 17376 ft 356 kts 205°
2026-05-05 03:10 50.55260 9.62763 16875 ft 354 kts 201°
2026-05-05 03:10 50.52948 9.61454 16374 ft 352 kts 201°
2026-05-05 03:11 50.50664 9.60076 15867 ft 350 kts 206°
2026-05-05 03:11 50.48711 9.57848 15355 ft 349 kts 226°
2026-05-05 03:11 50.47358 9.54714 14868 ft 348 kts 240°
2026-05-05 03:11 50.46336 9.51273 14367 ft 347 kts 245°
2026-05-05 03:12 50.45494 9.47720 13865 ft 346 kts 249°
2026-05-05 03:12 50.44792 9.44116 13365 ft 344 kts 252°
2026-05-05 03:12 50.44148 9.40513 12865 ft 342 kts 252°
2026-05-05 03:12 50.43497 9.36980 12370 ft 340 kts 252°
2026-05-05 03:13 50.42814 9.33389 11863 ft 338 kts 252°
2026-05-05 03:13 50.42140 9.29861 11363 ft 336 kts 252°
2026-05-05 03:13 50.41209 9.26599 10853 ft 332 kts 234°
2026-05-05 03:13 50.39662 9.23979 10626 ft 321 kts 223°
2026-05-05 03:14 50.37947 9.21787 10519 ft 307 kts 217°
2026-05-05 03:14 50.36244 9.19964 10414 ft 294 kts 213°
2026-05-05 03:14 50.34532 9.18335 10299 ft 283 kts 211°
2026-05-05 03:14 50.32858 9.16792 10196 ft 276 kts 211°
2026-05-05 03:15 50.31216 9.15235 10097 ft 276 kts 212°
2026-05-05 03:15 50.29577 9.13661 9998 ft 277 kts 212°
2026-05-05 03:15 50.28018 9.11895 9871 ft 277 kts 226°
2026-05-05 03:15 50.26919 9.09425 9652 ft 277 kts 239°
2026-05-05 03:16 50.26061 9.06737 9405 ft 276 kts 244°
2026-05-05 03:16 50.25326 9.03969 9156 ft 276 kts 247°
2026-05-05 03:16 50.24662 9.01159 8904 ft 275 kts 249°
2026-05-05 03:16 50.24026 8.98348 8654 ft 274 kts 249°
2026-05-05 03:17 50.23386 8.95545 8404 ft 273 kts 249°
2026-05-05 03:17 50.22743 8.92761 8154 ft 273 kts 249°
2026-05-05 03:17 50.22122 8.89972 7926 ft 272 kts 250°
2026-05-05 03:17 50.21500 8.87175 7726 ft 272 kts 249°
2026-05-05 03:18 50.20871 8.84414 7529 ft 271 kts 249°
2026-05-05 03:18 50.20227 8.81644 7325 ft 271 kts 249°
2026-05-05 03:18 50.19580 8.78892 7124 ft 270 kts 248°
2026-05-05 03:18 50.18929 8.76145 6928 ft 269 kts 248°
2026-05-05 03:19 50.17670 8.70861 6708 ft 251 kts 248°
2026-05-05 03:19 50.17067 8.68339 6605 ft 246 kts 248°
2026-05-05 03:19 50.16482 8.65898 6505 ft 234 kts 248°
2026-05-05 03:20 50.15918 8.63543 6399 ft 229 kts 248°
2026-05-05 03:20 50.15368 8.61249 6294 ft 225 kts 248°
2026-05-05 03:20 50.14818 8.58957 6193 ft 225 kts 248°
2026-05-05 03:20 50.14267 8.56664 6096 ft 226 kts 247°
2026-05-05 03:21 50.13717 8.54374 5994 ft 226 kts 247°
2026-05-05 03:21 50.13165 8.52077 5895 ft 226 kts 247°
2026-05-05 03:21 50.12616 8.49789 5793 ft 225 kts 247°
2026-05-05 03:21 50.12066 8.47503 5693 ft 226 kts 248°
2026-05-05 03:22 50.11515 8.45214 5588 ft 225 kts 247°
2026-05-05 03:22 50.10968 8.42927 5496 ft 223 kts 248°
2026-05-05 03:22 50.10454 8.40742 5396 ft 208 kts 248°
2026-05-05 03:22 50.09959 8.38658 5309 ft 203 kts 248°
2026-05-05 03:23 50.09464 8.36595 5181 ft 202 kts 247°
2026-05-05 03:23 50.08968 8.34545 5079 ft 203 kts 247°
2026-05-05 03:23 50.08469 8.32495 4977 ft 202 kts 247°
2026-05-05 03:23 50.07972 8.30451 4882 ft 202 kts 247°
2026-05-05 03:24 50.07471 8.28400 4775 ft 202 kts 247°
2026-05-05 03:24 50.06972 8.26364 4670 ft 202 kts 247°
2026-05-05 03:24 50.06474 8.24326 4581 ft 201 kts 247°
2026-05-05 03:24 50.05975 8.22290 4474 ft 201 kts 248°
2026-05-05 03:25 50.05478 8.20262 4376 ft 201 kts 248°
2026-05-05 03:25 50.04964 8.18238 4274 ft 201 kts 242°
2026-05-05 03:25 50.04030 8.16688 4157 ft 199 kts 208°
2026-05-05 03:25 50.02687 8.16362 4065 ft 199 kts 174°
2026-05-05 03:26 50.01391 8.17113 4031 ft 200 kts 158°
2026-05-05 03:26 50.00150 8.18128 4016 ft 201 kts 154°
2026-05-05 03:26 49.98926 8.19175 4019 ft 201 kts 153°
2026-05-05 03:26 49.97701 8.20228 4018 ft 201 kts 153°
2026-05-05 03:27 49.96483 8.21295 4015 ft 201 kts 147°
2026-05-05 03:27 49.95658 8.23001 3999 ft 204 kts 107°
2026-05-05 03:27 49.95743 8.25191 4015 ft 208 kts 79°
2026-05-05 03:27 49.96255 8.27294 3888 ft 208 kts 70°
2026-05-05 03:28 49.96840 8.29288 3623 ft 198 kts 68°
2026-05-05 03:28 49.97381 8.31184 3334 ft 190 kts 68°
2026-05-05 03:28 49.97869 8.33064 3074 ft 184 kts 70°
2026-05-05 03:28 49.98327 8.34937 2832 ft 183 kts 70°
2026-05-05 03:29 49.98769 8.36773 2612 ft 177 kts 70°
2026-05-05 03:29 49.99190 8.38527 2386 ft 169 kts 70°
2026-05-05 03:29 49.99589 8.40193 2187 ft 162 kts 70°
2026-05-05 03:29 49.99979 8.41821 1947 ft 159 kts 69°
2026-05-05 03:30 50.00362 8.43422 1685 ft 158 kts 69°
2026-05-05 03:30 50.00727 8.45017 1473 ft 154 kts 69°
2026-05-05 03:30 50.01105 8.46567 1281 ft 154 kts 67°
2026-05-05 03:30 50.01485 8.48112 1110 ft 151 kts 68°
2026-05-05 03:31 50.01835 8.49633 901 ft 149 kts 68°
2026-05-05 03:31 50.02211 8.51116 708 ft 149 kts 68°
2026-05-05 03:31 50.02563 8.52621 516 ft 149 kts 68°
2026-05-05 03:31 50.02930 8.54133 381 ft 142 kts 68°
2026-05-05 03:32 50.03203 8.55286 378 ft 81 kts 69°
2026-05-05 03:32 50.03341 8.55863 377 ft 45 kts 69°
2026-05-05 03:32 50.03446 8.56238 377 ft 35 kts 52°
2026-05-05 03:32 50.03550 8.56390 377 ft 13 kts 40°
2026-05-05 03:33 50.03618 8.56479 377 ft 12 kts 40°
2026-05-05 03:33 50.03683 8.56563 377 ft 12 kts 40°
2026-05-05 03:33 50.03745 8.56644 377 ft 11 kts 40°
2026-05-05 03:33 50.03793 8.56737 377 ft 11 kts 64°
2026-05-05 03:34 50.03814 8.56820 377 ft 0 kts 69°
2026-05-05 03:34 50.03815 8.56820 377 ft 2 kts 69°
2026-05-05 03:35 50.03828 8.56875 377 ft 8 kts 69°
2026-05-05 03:35 50.03853 8.56982 377 ft 10 kts 70°
2026-05-05 03:35 50.03878 8.57086 377 ft 10 kts 70°
2026-05-05 03:35 50.03902 8.57187 377 ft 13 kts 70°
2026-05-05 03:36 50.03943 8.57355 377 ft 17 kts 69°
2026-05-05 03:36 50.03983 8.57520 377 ft 16 kts 70°
2026-05-05 03:36 50.04020 8.57675 377 ft 15 kts 70°
2026-05-05 03:36 50.04054 8.57820 377 ft 14 kts 70°
2026-05-05 03:37 50.04093 8.57984 377 ft 19 kts 69°
2026-05-05 03:37 50.04138 8.58169 377 ft 18 kts 69°
2026-05-05 03:37 50.04180 8.58344 377 ft 17 kts 69°
2026-05-05 03:37 50.04219 8.58510 377 ft 16 kts 69°
2026-05-05 03:38 50.04259 8.58679 377 ft 19 kts 70°
2026-05-05 03:38 50.04304 8.58865 377 ft 18 kts 69°
2026-05-05 03:38 50.04347 8.59042 377 ft 17 kts 69°
2026-05-05 03:38 50.04387 8.59209 377 ft 16 kts 70°
2026-05-05 03:39 50.04424 8.59367 377 ft 15 kts 70°
2026-05-05 03:39 50.04463 8.59457 377 ft 9 kts 26°
2026-05-05 03:39 50.04548 8.59472 377 ft 13 kts 357°
2026-05-05 03:39 50.04639 8.59465 377 ft 13 kts 357°
2026-05-05 03:40 50.04722 8.59433 377 ft 12 kts 339°
2026-05-05 03:40 50.04800 8.59387 377 ft 12 kts 339°
2026-05-05 03:40 50.04846 8.59299 377 ft 12 kts 271°
2026-05-05 03:40 50.04822 8.59169 377 ft 12 kts 249°
2026-05-05 03:41 50.04801 8.59084 377 ft 13 kts 249°
2026-05-05 03:41 50.04762 8.58918 377 ft 12 kts 249°
2026-05-05 03:41 50.04732 8.58797 377 ft 15 kts 247°
2026-05-05 03:41 50.04686 8.58622 377 ft 17 kts 250°
2026-05-05 03:42 50.04659 8.58508 377 ft 17 kts 249°
2026-05-05 03:42 50.04607 8.58291 377 ft 15 kts 250°
2026-05-05 03:42 50.04583 8.58189 377 ft 15 kts 250°
2026-05-05 03:42 50.04549 8.58044 377 ft 14 kts 250°
2026-05-05 03:43 50.04516 8.57909 377 ft 13 kts 249°
2026-05-05 03:43 50.04485 8.57780 377 ft 12 kts 249°
2026-05-05 03:43 50.04455 8.57656 377 ft 12 kts 249°
2026-05-05 03:43 50.04426 8.57536 377 ft 12 kts 249°
2026-05-05 03:44 50.04398 8.57422 377 ft 11 kts 249°
2026-05-05 03:44 50.04372 8.57312 377 ft 11 kts 250°
2026-05-05 03:44 50.04344 8.57193 377 ft 18 kts 250°
2026-05-05 03:44 50.04302 8.57016 377 ft 17 kts 250°
2026-05-05 03:45 50.04273 8.56881 377 ft 10 kts 270°
2026-05-05 03:45 50.04324 8.56832 377 ft 10 kts
2026-05-05 03:45 50.04389 8.56842 377 ft 9 kts
2026-05-05 03:45 50.04452 8.56849 377 ft 9 kts
2026-05-05 03:46 50.04512 8.56857 377 ft 8 kts 22°
2026-05-05 03:46 50.04546 8.56929 377 ft 8 kts 60°
2026-05-05 03:46 50.04570 8.56995 377 ft 6 kts 60°
2026-05-05 03:46 50.04586 8.57039 377 ft 2 kts 60°
2026-05-05 03:47 50.04591 8.57051 377 ft 0 kts 59°